GEFSMA_con_probscp_108.txt.gz
Probability
0 0 0 0 0 0 0 0 0 0 0 0 0 0 0 0 0 0 0 0 0 0 0 0 0 0 0 0 0 0 0 0 1 1 1 0 0 0 0 0 0 0 0
0 0 0 0 0 0 0 0 0 0 0 0 0 0 0 0 0 0 0 0 0 0 0 0 0 0 0 0 0 0 0 0 0 0 0 0 0 0 0 0 0 0 0
0 0 0 0 0 0 0 0 0 0 0 0 0 0 0 0 0 0 0 0 0 0 0 0 0 0 0 0 0 0 0 0 0 0 0 0 0 0 0 0 0 0 0
0 0 0 0 0 0 0 0 0 0 0 0 0 0 0 0 0 0 0 0 0 0 0 0 0 0 0 0 0 0 0 0 0 0 0 0 0 0 0 0 0 0 0
0 0 0 0 0 0 0 0 0 0 0 0 0 0 0 0 0 0 0 0 0 0 0 0 0 0 0 0 0 0 0 0 1 0 0 0 0 0 0 0 0 0 0
1 0 0 0 0 0 0 0 0 0 0 0 0 0 0 0 0 0 0 0 0 0 0 0 0 0 0 0 0 0 0 0 0 0 0 0 0 0 0 0 0 0 0
2 1 0 0 0 0 0 0 0 0 0 0 0 0 0 0 0 0 0 0 0 0 0 0 0 0 0 0 0 0 0 0 0 0 0 0 0 0 0 0 0 0 0
4 3 1 0 0 0 0 0 0 0 0 0 0 0 0 0 0 0 0 0 0 0 0 0 0 0 0 0 0 0 0 0 0 0 0 0 0 0 0 0 0 0 0
5 3 1 0 0 0 0 0 0 0 0 0 0 0 0 0 0 0 0 0 0 0 0 0 0 0 0 0 0 0 0 0 0 0 0 0 0 0 0 0 0 0 0
5 3 1 1 0 0 0 0 0 0 0 0 0 0 0 0 0 0 0 0 0 0 0 0 0 0 0 0 0 0 0 0 0 0 0 0 0 0 0 0 0 0 0
4 3 3 2 1 0 0 0 0 0 0 0 0 0 0 0 0 0 0 0 0 0 0 0 0 0 0 0 0 0 0 0 0 0 0 0 0 0 0 0 0 0 0
3 3 3 2 1 0 0 0 0 0 0 0 0 0 0 0 0 0 0 0 0 0 0 0 0 0 0 0 0 0 0 0 0 0 0 0 0 0 0 0 0 0 0
3 3 3 2 1 0 0 0 0 0 0 0 0 0 0 0 0 0 0 0 0 0 0 0 0 0 0 0 0 0 0 0 0 0 0 0 0 0 0 0 0 0 0
1 2 2 2 1 0 0 0 0 0 0 0 0 0 0 0 0 0 0 0 0 0 0 0 0 0 0 0 0 0 0 0 0 0 0 0 0 0 0 0 0 0 0
0 1 1 1 0 0 0 0 0 0 0 0 0 0 0 0 0 0 0 0 0 0 0 0 0 0 0 0 0 0 0 0 0 0 0 0 0 0 0 0 0 0 0
0 0 0 0 0 0 0 0 0 0 0 0 0 0 0 0 0 0 0 0 0 0 0 0 0 0 0 0 0 0 0 0 0 0 0 0 0 0 0 0 0 0 0
0 0 0 0 0 0 0 0 0 0 0 0 0 0 0 0 0 0 0 0 0 0 0 0 0 0 0 0 0 0 0 0 0 0 0 0 0 0 0 0 0 0 0
0 0 0 0 0 0 0 0 0 0 0 0 0 0 0 0 0 0 0 0 0 0 0 0 0 0 0 0 0 0 0 0 0 0 0 0 0 0 0 0 0 0 0
0 0 0 0 0 0 0 0 0 0 0 0 0 0 0 0 0 0 0 0 0 0 0 0 0 0 0 0 0 0 0 0 0 0 0 0 0 0 0 0 0 0 0
0 0 0 0 0 0 0 0 0 0 0 0 0 0 0 0 0 0 0 0 0 0 0 0 0 0 0 0 0 0 0 0 0 0 0 0 0 0 0 0 0 0 0
0 0 0 0 0 0 0 0 0 0 0 0 0 0 0 0 0 0 0 0 0 0 0 0 0 0 0 0 0 0 0 0 0 0 0 0 0 0 0 0 0 0 0
0 0 0 0 0 0 0 0 0 0 0 0 0 0 0 0 0 0 0 0 0 0 0 0 0 0 0 0 0 0 0 0 0 0 0 0 0 0 0 0 0 0 0
0 0 0 0 0 0 0 0 0 0 0 0 0 0 0 0 0 0 0 0 0 0 0 0 0 0 0 0 0 0 0 0 0 0 0 0 0 0 0 0 0 0 0
0 0 0 0 0 0 0 0 0 0 0 0 0 0 0 0 0 0 0 0 0 0 0 0 0 0 0 0 0 0 0 0 0 0 0 0 0 0 0 0 0 0 0
0 0 0 0 0 0 0 0 0 0 0 0 0 0 0 0 0 0 0 0 0 0 0 0 0 0 0 0 0 0 0 0 0 0 0 0 0 0 0 0 0 0 0
0 0 0 0 0 0 0 0 0 0 0 0 0 0 0 0 0 0 0 0 0 0 0 0 0 0 0 0 0 0 0 0 0 0 0 0 0 0 0 0 0 0 0

GEFSMA_con_probscp_114.txt.gz
Probability
0 0 0 0 0 0 0 0 0 0 0 0 0 0 0 0 0 0 0 0 0 0 0 0 0 0 0 0 0 0 0 0 0 0 0 0 0 0 0 0 0 0 0
0 0 0 0 0 0 0 0 0 0 0 0 0 0 0 0 0 0 0 0 0 0 0 0 0 0 0 0 0 0 0 0 0 0 0 0 0 0 0 0 0 0 0
0 0 0 0 0 0 0 0 0 0 0 0 0 0 0 0 0 0 0 0 0 0 0 0 0 0 0 0 0 0 0 0 0 0 0 0 0 0 0 0 0 0 0
0 0 0 0 0 0 0 0 0 0 0 0 0 0 0 0 0 0 0 0 0 0 0 0 0 0 0 0 0 0 0 0 0 0 0 0 0 0 0 0 0 0 0
0 0 0 0 0 0 0 0 0 0 0 0 0 0 0 0 0 0 0 0 0 0 0 0 0 0 0 0 0 0 0 0 0 0 0 0 0 0 0 0 0 0 0
0 0 0 0 0 0 0 0 0 0 0 0 0 0 0 0 0 0 0 0 0 0 0 0 0 0 0 0 0 0 0 0 0 0 0 0 0 0 0 0 0 0 0
1 0 0 0 0 0 0 0 0 0 0 0 0 0 0 0 0 0 0 0 0 0 0 0 0 0 0 0 0 0 0 0 0 0 0 0 0 0 0 0 0 0 0
2 1 0 0 0 0 0 0 0 0 0 0 0 0 0 0 0 0 0 0 0 0 0 0 0 0 0 0 0 0 0 0 0 0 0 0 0 0 0 0 0 0 0
4 3 1 0 0 0 0 0 0 0 0 0 0 0 0 0 0 0 0 0 0 0 0 0 0 0 0 0 0 0 0 0 0 0 0 0 0 0 0 0 0 0 0
4 3 1 0 0 0 0 0 0 0 0 0 0 0 0 0 0 0 0 0 0 0 0 0 0 0 0 0 0 0 0 0 0 0 0 0 0 0 0 0 0 0 0
3 3 3 1 0 0 0 0 0 0 0 0 0 0 0 0 0 0 0 0 0 0 0 0 0 0 0 0 0 0 0 0 0 0 0 0 0 0 0 0 0 0 0
3 3 4 3 1 0 0 0 0 0 0 0 0 0 0 0 0 0 0 0 0 0 0 0 0 0 0 0 0 0 0 0 0 0 0 0 0 0 0 0 0 0 0
4 4 4 3 2 1 0 0 0 0 0 0 0 0 0 0 0 0 0 0 0 0 0 0 0 0 0 0 0 0 0 0 0 0 0 0 0 0 0 0 0 0 0
4 4 4 4 3 2 1 0 0 0 0 0 0 0 0 0 0 0 0 0 0 0 0 0 0 0 0 0 0 0 0 0 0 0 0 0 0 0 0 0 0 0 0
4 4 4 3 2 2 1 0 0 0 0 0 0 0 0 0 0 0 0 0 0 0 0 0 0 0 0 0 0 0 0 0 0 0 0 0 0 0 0 0 0 0 0
2 2 2 1 1 1 0 0 0 0 0 0 0 0 0 0 0 0 0 0 0 0 0 0 0 0 0 0 0 0 0 0 0 0 0 0 0 0 0 0 0 0 0
1 1 1 0 0 0 0 0 0 0 0 0 0 0 0 0 0 0 0 0 0 0 0 0 0 0 0 0 0 0 0 0 0 0 0 0 0 0 0 0 0 0 0
0 0 0 0 0 0 0 0 0 0 0 0 0 0 0 0 0 0 0 0 0 0 0 0 0 0 0 0 0 0 0 0 0 0 0 0 0 0 0 0 0 0 0
0 0 0 0 0 0 0 0 0 0 0 0 0 0 0 0 0 0 0 0 0 0 0 0 0 0 0 0 0 0 0 0 0 0 0 0 0 0 0 0 0 0 0
0 0 0 0 0 0 0 0 0 0 0 0 0 0 0 0 0 0 0 0 0 0 0 0 0 0 0 0 0 0 0 0 0 0 0 0 0 0 0 0 0 0 0
0 0 0 0 0 0 0 0 0 0 0 0 0 0 0 0 0 0 0 0 0 0 0 0 0 0 0 0 0 0 0 0 0 0 0 0 0 0 0 0 0 0 0
1 0 0 0 0 0 0 0 0 0 0 0 0 0 0 0 0 0 0 0 0 0 0 0 0 0 0 0 0 0 0 0 0 0 0 0 0 0 0 0 0 0 0
2 1 0 0 0 0 0 0 0 0 0 0 0 0 0 0 0 0 0 0 0 0 0 0 0 0 0 0 0 0 0 0 0 0 0 0 0 0 0 0 0 0 0
2 1 1 0 0 0 0 0 0 0 0 0 0 0 0 0 0 0 0 0 0 0 0 0 0 0 0 0 0 0 0 0 0 0 0 0 0 0 0 0 0 0 0
3 3 2 1 0 0 0 0 0 0 0 0 0 0 0 0 0 0 0 0 0 0 0 0 0 0 0 0 0 0 0 0 0 0 0 0 0 0 0 0 0 0 0
3 3 2 1 0 0 0 0 0 0 0 0 0 0 0 0 0 0 0 0 0 0 0 0 0 0 0 0 0 0 0 0 0 0 0 0 0 0 0 0 0 0 0

GEFSMA_con_probscp_120.txt.gz
Probability
0 0 0 0 0 0 0 0 0 0 0 0 0 0 0 0 0 0 0 0 0 0 0 0 0 0 0 0 0 0 0 0 0 0 0 0 0 0 0 0 0 0 0
0 0 0 0 0 0 0 0 0 0 0 0 0 0 0 0 0 0 0 0 0 0 0 0 0 0 0 0 0 0 0 0 0 0 0 0 0 0 0 0 0 0 0
0 0 0 0 0 0 0 0 0 0 0 0 0 0 0 0 0 0 0 0 0 0 0 0 0 0 0 0 0 0 0 0 0 0 0 0 0 0 0 0 0 0 0
0 0 0 0 0 0 0 0 0 0 0 0 0 0 0 0 0 0 0 0 0 0 0 0 0 0 0 0 0 0 0 0 0 0 0 0 0 0 0 0 0 0 0
0 0 0 0 0 0 0 0 0 0 0 0 0 0 0 0 0 0 0 0 0 0 0 0 0 0 0 0 0 0 0 0 0 0 0 0 0 0 0 0 0 0 0
0 0 1 1 0 0 0 0 0 0 0 0 0 0 0 0 0 0 0 0 0 0 0 0 0 0 0 0 0 0 0 0 0 0 0 0 0 0 0 0 0 0 0
1 2 2 3 2 1 1 1 1 0 0 0 0 0 0 0 0 0 0 0 0 0 0 0 0 0 0 0 0 0 0 0 0 0 0 0 0 0 0 0 0 0 0
3 3 3 4 4 3 2 2 2 1 0 0 0 0 0 0 0 0 0 0 0 0 0 0 0 0 0 0 0 0 0 0 0 0 0 0 0 0 0 0 0 0 0
4 3 4 5 6 5 4 4 3 3 2 1 0 0 0 0 0 0 0 0 0 0 0 0 0 0 0 0 0 0 0 0 0 0 0 0 0 0 0 0 0 0 0
4 5 6 7 7 7 7 6 5 6 7 5 2 1 1 0 0 0 0 0 0 0 0 0 0 0 0 0 0 0 0 0 0 0 0 0 0 0 0 0 0 0 0
5 6 8 9 9 9 10 10 9 9 9 8 5 3 2 0 0 0 0 0 0 0 0 0 0 0 0 0 0 0 0 0 0 0 0 0 0 0 0 0 0 0 0
5 6 8 10 11 10 11 12 12 9 9 8 7 5 3 1 1 2 1 0 0 0 0 0 0 0 0 0 0 0 0 0 0 0 0 0 0 0 0 0 0 0 0
6 5 8 12 13 11 10 11 12 10 9 8 6 6 5 3 3 3 2 0 0 0 0 0 1 1 1 0 1 1 0 0 0 0 0 0 0 0 0 0 0 0 0
6 5 7 11 12 11 9 9 11 11 9 7 6 7 8 7 5 3 2 1 0 0 0 1 2 2 1 1 1 1 1 1 0 0 0 0 0 0 0 0 0 0 0
4 4 6 7 9 9 10 10 11 10 9 7 6 7 8 8 6 4 3 3 2 1 2 5 5 3 2 1 1 2 2 1 0 0 0 0 0 0 0 0 0 0 0
3 3 4 5 6 7 10 12 11 9 6 6 6 6 6 6 5 5 5 5 4 3 4 6 6 6 6 5 4 5 4 2 1 0 0 0 0 0 0 0 0 0 0
3 3 3 4 5 6 8 9 8 5 3 3 4 3 3 3 4 4 4 4 5 4 4 4 6 8 9 8 6 5 5 3 2 0 0 0 0 0 0 0 0 0 0
4 3 3 3 5 6 6 6 5 2 1 2 2 1 1 1 2 3 3 4 4 4 3 3 4 7 8 6 4 3 3 2 1 0 0 0 0 0 0 0 0 0 0
4 3 4 5 6 6 6 6 4 2 1 2 2 1 0 0 1 2 2 4 4 3 3 3 3 5 5 4 3 2 2 2 1 0 0 0 0 0 0 0 0 0 0
3 3 4 5 5 4 4 5 4 3 2 1 1 1 0 0 0 0 1 3 3 3 4 3 3 3 4 5 5 4 4 3 2 1 1 1 1 0 0 0 0 0 0
3 3 3 3 2 1 1 3 3 3 2 1 1 0 0 0 0 0 0 1 2 3 4 3 2 2 3 3 4 5 4 3 2 2 2 2 2 1 1 1 0 0 0
3 4 4 3 3 1 0 1 2 3 3 3 2 1 0 0 0 0 0 0 1 1 1 1 1 1 1 1 1 2 1 1 1 1 1 1 1 1 1 1 0 0 0
6 6 6 6 5 3 1 0 1 2 3 3 3 2 1 0 0 0 0 0 0 0 0 0 0 0 0 0 0 0 0 0 0 0 0 0 0 0 1 1 0 0 0
6 7 7 6 5 3 1 0 0 1 1 2 2 2 1 0 0 0 0 0 0 0 0 0 0 0 0 0 0 0 0 0 0 0 1 0 0 0 0 0 0 0 0
5 4 4 4 3 3 2 1 0 0 0 1 1 1 1 0 0 0 0 0 0 0 0 0 0 0 0 0 0 0 0 0 0 0 0 0 0 0 0 0 0 0 0
3 3 3 3 3 3 2 1 0 0 0 0 1 1 1 0 0 0 0 0 0 0 0 0 0 0 0 0 0 0 0 0 0 0 0 0 0 0 0 0 0 0 0

GEFSMA_con_probscp_126.txt.gz
Probability
3 1 0 0 0 0 0 0 0 0 0 0 0 0 0 0 0 0 0 0 0 0 0 0 0 0 0 0 0 0 0 0 1 0 0 0 0 0 0 0 0 0 0
7 4 1 0 0 0 0 0 0 0 0 0 0 0 0 0 0 0 0 0 0 0 0 0 0 0 0 0 0 0 0 0 1 0 0 0 0 0 0 0 0 0 0
12 7 2 0 0 0 0 0 0 0 0 0 0 0 0 0 0 0 0 0 0 0 0 0 0 0 0 0 0 0 0 0 1 0 0 0 0 0 0 0 0 0 0
16 10 4 1 1 0 0 0 0 0 0 0 0 0 0 1 1 1 0 0 0 0 0 0 0 0 0 0 0 0 0 1 1 1 0 0 0 0 0 0 0 0 0
18 14 9 6 3 2 2 2 1 1 0 0 0 0 0 2 2 1 0 0 0 0 0 0 0 0 0 0 0 0 0 1 2 1 0 0 0 0 0 0 0 0 0
22 18 14 11 8 6 6 5 4 3 2 1 1 0 0 2 3 2 0 0 0 0 1 2 1 0 0 0 0 0 0 1 2 1 0 0 0 0 0 0 0 0 0
25 20 16 16 14 11 11 10 8 6 4 3 1 1 0 1 4 4 1 0 0 1 3 4 3 1 0 0 0 0 0 0 1 1 0 0 0 0 0 0 0 0 0
26 22 21 23 20 16 15 14 11 8 6 4 3 3 1 1 3 4 3 1 1 2 3 5 4 3 2 1 0 0 0 0 0 0 0 0 0 0 0 0 0 0 0
26 25 25 26 23 19 17 15 13 10 7 6 6 6 3 1 2 3 4 3 3 3 2 3 4 5 4 3 1 0 0 0 0 0 0 0 0 0 0 0 0 0 0
24 25 24 25 25 22 17 14 13 13 10 7 8 9 6 3 3 3 3 3 4 4 2 2 3 4 5 4 3 1 0 0 0 0 0 0 0 0 0 0 0 0 0
20 21 22 24 25 23 17 14 15 16 13 9 8 9 9 7 5 2 1 2 3 3 3 3 3 4 4 5 4 1 0 0 0 0 0 0 0 0 0 0 0 0 0
17 18 20 23 24 21 16 14 16 16 14 10 7 7 9 8 6 4 2 2 3 3 4 6 7 6 4 4 3 2 1 0 0 0 0 0 0 0 0 1 1 1 0
14 16 19 22 21 17 16 16 16 15 13 9 6 6 6 6 5 4 4 4 3 4 6 8 8 7 4 3 3 3 1 0 0 0 0 0 0 0 0 1 2 1 1
12 17 23 23 19 16 18 20 18 15 14 12 9 8 6 4 3 3 5 4 3 3 4 6 7 7 6 5 3 2 1 0 0 0 0 0 0 0 0 0 1 1 0
14 21 27 26 21 18 19 21 20 17 17 17 15 12 8 4 3 3 4 5 4 2 1 3 6 9 8 5 2 1 1 0 0 0 0 0 0 0 0 0 0 0 0
16 23 27 24 21 19 18 18 17 16 18 19 17 14 10 7 6 5 5 7 7 3 0 2 7 12 11 7 4 2 1 0 0 0 0 0 0 0 0 0 0 0 0
17 21 23 20 17 15 14 12 11 12 13 14 14 12 9 9 9 9 9 10 9 5 2 4 10 14 14 11 7 4 2 0 0 0 0 0 0 0 0 0 0 0 0
15 17 18 17 13 11 9 8 7 7 8 10 11 9 7 7 8 9 10 9 8 5 3 5 9 11 10 8 6 3 1 0 0 0 0 0 0 0 0 0 0 0 0
12 13 15 14 11 8 7 6 5 5 6 7 8 6 5 4 4 5 6 5 3 2 3 4 5 5 3 2 2 1 0 0 0 0 0 0 0 0 0 0 0 0 0
10 11 12 12 10 8 7 7 6 6 6 5 5 4 3 3 3 3 2 1 0 0 1 2 3 2 0 0 0 0 0 0 0 0 0 0 0 0 0 0 0 0 0
10 9 9 10 10 8 7 8 7 6 5 4 4 3 3 3 3 2 1 0 0 0 0 1 1 0 0 0 0 0 0 0 0 0 0 0 0 0 0 0 0 0 0
10 8 7 8 8 6 5 5 5 5 4 3 3 3 3 3 1 1 0 0 0 0 0 0 0 1 1 1 0 0 0 0 0 0 0 0 0 0 0 0 0 0 0
9 8 8 8 6 3 2 2 2 4 4 3 3 3 3 2 1 0 0 0 0 0 0 0 0 1 2 1 0 0 0 0 0 0 0 0 0 0 0 0 0 0 0
10 10 10 9 6 2 0 0 1 2 3 3 3 3 3 3 1 0 0 0 0 0 0 0 0 1 1 1 0 0 0 0 0 0 0 0 0 0 0 0 0 0 0
14 13 12 9 5 1 0 0 0 1 1 2 2 2 2 2 1 0 0 0 0 0 0 0 0 0 0 0 0 0 0 0 0 0 0 0 0 0 0 0 0 0 0
17 15 12 7 4 1 0 0 0 1 2 2 1 1 1 1 1 0 0 0 0 0 0 0 0 0 0 0 0 0 0 0 0 0 0 0 0 0 0 0 0 0 0

GEFSMA_con_probscp_132.txt.gz
Probability
0 0 0 0 0 0 0 0 0 0 0 0 0 0 0 0 0 0 0 0 0 0 0 0 0 0 0 0 0 0 0 0 0 0 0 0 0 0 0 0 0 0 0
0 0 0 0 0 0 0 0 0 0 0 0 0 0 0 0 0 0 0 0 0 0 0 0 0 0 0 0 0 0 0 0 0 0 0 0 0 0 1 1 0 0 0
0 0 0 0 0 0 0 0 0 0 0 0 0 0 0 0 0 0 0 0 0 0 0 0 0 0 0 0 0 0 0 0 0 0 0 0 0 0 1 1 0 0 0
1 0 0 0 0 0 0 0 0 0 0 0 0 0 0 0 0 0 0 0 0 0 0 0 0 0 0 0 0 0 0 0 0 0 0 0 0 0 1 1 0 0 0
3 2 0 0 0 0 0 0 0 0 0 0 0 0 0 0 0 0 0 0 0 0 0 0 0 0 0 0 0 0 0 0 0 0 1 1 0 0 0 0 0 0 0
5 4 1 0 0 0 0 0 0 0 0 0 0 0 0 0 0 0 0 0 0 0 0 0 0 0 0 0 0 0 0 0 0 1 2 1 0 0 0 0 0 0 0
4 4 2 0 0 0 0 0 0 0 0 0 0 0 0 0 0 0 0 0 0 0 0 0 0 0 0 0 0 0 0 0 0 1 1 1 0 0 0 0 0 0 0
4 3 2 1 0 0 0 0 0 0 0 0 0 0 0 0 0 0 0 0 0 0 0 0 0 0 0 0 0 0 0 0 0 0 0 0 0 0 0 0 0 0 0
5 4 3 1 1 0 0 0 0 0 0 0 0 0 0 0 0 0 0 0 0 0 0 0 0 0 0 0 0 0 0 0 0 0 0 0 0 0 0 0 0 0 0
6 5 4 3 2 1 1 0 0 0 0 0 0 0 0 0 0 0 0 0 0 0 0 0 0 0 0 0 0 0 0 0 0 0 0 0 0 0 0 0 0 0 0
5 5 5 4 3 3 2 1 0 0 0 0 0 0 0 0 0 0 0 0 0 0 0 0 0 0 0 0 0 0 0 0 0 0 0 0 0 0 0 0 0 0 0
3 4 5 5 4 3 3 2 1 0 0 0 0 0 0 0 0 0 0 0 0 0 0 0 0 0 0 0 0 0 0 0 0 0 0 0 0 0 0 0 0 0 0
1 2 3 4 4 4 3 3 1 0 0 0 0 0 0 0 0 0 0 0 0 0 0 0 0 0 0 0 0 0 0 0 0 0 0 0 0 0 0 0 0 0 0
2 1 1 2 3 3 3 3 2 1 1 0 0 0 0 0 0 0 0 0 0 0 0 0 0 0 0 0 0 0 0 0 0 0 0 0 0 0 0 0 0 0 0
2 1 0 0 1 1 1 2 2 2 2 1 0 0 0 0 0 0 0 0 0 0 0 0 0 0 0 0 0 0 0 0 0 0 0 0 0 0 0 0 0 0 0
1 0 0 0 0 0 0 1 1 1 1 1 0 0 0 0 0 0 0 0 0 0 0 0 0 0 0 0 0 0 0 0 0 0 0 0 0 0 0 0 0 0 0
0 0 0 0 0 0 0 0 0 0 0 0 0 0 0 0 0 0 0 0 0 0 0 0 0 0 0 0 0 0 0 0 0 0 0 0 0 0 0 0 0 0 0
0 0 0 0 0 0 0 1 1 0 0 0 0 0 0 0 0 0 0 0 0 0 0 0 0 0 0 0 0 0 0 0 0 0 0 0 0 0 0 0 0 0 0
0 0 0 0 0 0 0 1 2 1 1 0 0 0 0 0 0 0 0 0 0 0 0 0 0 0 0 0 0 0 0 0 0 0 0 0 0 0 0 0 0 0 0
0 0 0 0 0 0 0 1 2 2 1 0 0 0 0 0 0 0 0 0 0 0 0 0 0 0 0 0 0 0 0 0 0 0 0 0 0 0 0 0 0 0 0
0 0 0 1 1 1 1 2 2 2 1 0 0 0 0 0 0 0 0 0 0 0 0 0 0 0 0 0 0 0 0 0 0 0 0 0 0 0 0 0 0 0 0
0 0 0 1 2 1 1 1 2 2 2 1 1 0 0 0 0 0 0 0 0 0 0 0 0 0 0 0 0 0 0 0 0 0 0 0 0 0 0 0 0 0 0
0 0 0 1 1 1 0 0 1 1 2 2 1 1 0 0 0 0 0 0 0 0 0 0 0 0 0 0 0 0 0 0 0 0 0 0 0 0 0 0 0 0 0
0 0 0 0 0 0 0 0 0 0 1 1 1 1 0 0 0 0 0 0 0 0 0 0 0 0 0 0 0 0 0 0 0 0 0 0 0 0 0 0 0 0 0
0 0 0 0 0 0 0 0 0 0 0 0 0 0 0 0 0 0 0 0 0 0 0 0 0 0 0 0 0 0 0 0 0 0 0 0 0 0 0 0 0 0 0
0 0 0 0 0 0 0 0 0 0 0 0 0 0 0 0 0 0 0 0 0 0 0 0 0 0 0 0 0 0 0 0 0 0 0 0 0 0 0 0 0 0 0

GEFSMA_con_probscp_138.txt.gz
Probability
0 0 0 0 0 0 0 0 0 0 0 0 0 0 0 0 0 0 0 0 0 0 0 0 0 0 0 0 0 0 0 0 0 0 0 0 0 0 0 0 0 0 0
0 0 0 0 0 0 0 0 0 0 0 0 0 0 0 0 0 0 0 0 0 0 0 0 0 0 0 0 0 0 0 0 0 0 0 0 0 0 0 0 0 0 0
0 0 0 0 0 0 0 0 0 0 0 0 0 0 0 0 0 0 0 0 0 0 0 0 0 0 0 0 0 0 0 0 0 0 0 0 0 0 0 0 0 0 0
0 0 0 0 0 0 0 0 0 0 0 0 0 0 0 0 0 0 0 0 0 0 0 0 0 0 0 0 0 0 0 0 0 0 0 0 0 0 0 0 0 0 0
1 0 0 0 0 0 0 0 0 0 0 0 0 0 0 0 0 0 0 0 0 0 0 0 0 0 0 0 0 0 0 0 0 0 0 0 0 0 0 0 0 0 0
2 1 0 0 0 0 0 0 0 0 0 0 0 0 0 0 0 0 0 0 0 0 0 0 0 0 0 0 0 0 0 0 0 0 0 0 0 0 0 0 0 0 0
3 2 1 0 0 0 0 0 0 0 0 0 0 0 0 0 0 0 0 0 0 0 0 0 0 0 0 0 0 0 0 0 0 0 0 0 0 0 0 0 0 0 0
3 3 2 1 1 1 1 1 0 0 0 0 0 0 0 0 0 0 0 0 0 0 0 0 0 0 0 0 0 0 1 0 0 0 0 0 0 0 0 0 0 0 0
1 2 1 1 2 2 2 2 1 0 0 0 0 0 0 0 0 0 0 0 0 0 0 0 0 0 0 0 0 0 0 0 0 0 0 0 0 0 0 0 0 0 0
0 0 1 2 3 3 3 3 1 1 0 0 0 0 0 0 0 0 0 0 0 0 0 0 0 0 0 0 0 0 0 0 0 0 0 0 0 0 0 0 0 0 0
0 0 0 1 2 3 3 3 3 2 1 0 0 0 0 0 0 0 0 0 0 0 0 0 0 0 0 0 0 0 0 0 0 0 0 0 0 0 1 0 0 0 0
0 0 0 0 1 2 3 3 3 3 1 1 0 0 0 0 0 0 0 0 0 0 0 0 0 0 0 0 0 0 0 0 0 0 0 0 0 0 0 0 0 0 0
0 0 0 0 0 1 2 2 2 2 2 2 1 0 0 0 0 0 0 0 0 0 0 0 0 0 0 0 0 0 0 0 0 0 0 0 0 0 0 0 0 0 0
0 0 0 0 0 0 1 1 1 1 2 2 1 0 0 0 0 0 0 0 0 0 0 0 0 0 0 0 0 0 0 0 0 0 0 0 0 0 0 0 0 0 0
0 0 0 0 0 0 0 0 0 0 1 1 1 0 0 0 0 0 0 0 0 0 0 0 0 0 0 0 0 0 0 0 0 0 0 0 0 0 0 0 0 0 0
0 0 0 0 0 0 0 0 0 0 0 0 0 0 0 0 0 0 0 0 0 0 0 0 0 0 0 0 0 0 0 0 0 0 0 0 0 0 0 0 0 0 0
0 0 0 0 0 0 0 0 0 0 0 0 0 0 0 0 0 0 0 0 0 0 0 0 0 0 0 0 0 0 0 0 0 0 0 0 0 0 0 0 0 0 0
0 0 0 0 0 0 0 0 0 0 0 0 0 0 0 0 0 0 0 0 0 0 0 0 0 0 0 0 0 0 0 0 0 0 0 0 0 0 0 0 0 0 0
0 0 0 0 0 0 0 0 0 0 0 0 0 0 0 0 0 0 0 0 0 0 0 0 0 0 0 0 0 0 0 0 0 0 0 0 0 0 0 0 0 0 0
0 0 0 0 0 0 0 0 0 0 0 0 0 0 0 0 0 0 0 0 0 0 0 0 0 0 0 0 0 0 0 0 0 0 0 0 0 0 0 0 0 0 0
0 0 0 0 0 0 0 0 0 0 0 0 0 0 0 0 0 0 0 0 0 0 0 0 0 0 0 0 0 0 0 0 0 0 0 0 0 0 0 0 0 0 0
0 0 0 0 0 0 0 0 0 0 0 0 0 1 1 1 0 0 0 0 0 0 0 0 0 0 0 0 0 0 0 0 0 0 0 0 0 0 0 0 0 0 0
0 0 0 0 0 0 0 0 0 0 0 0 0 1 2 2 1 1 0 0 0 0 0 0 0 0 0 0 0 0 0 0 0 0 0 0 0 0 0 0 0 0 0
0 0 0 0 0 0 0 0 0 0 0 0 0 1 1 2 2 1 0 0 0 0 0 0 0 0 0 0 0 0 0 0 0 0 0 0 0 0 0 0 0 0 0
0 0 0 0 0 0 0 0 0 0 0 0 0 0 0 1 1 1 0 0 0 0 0 0 0 0 0 0 0 0 0 0 0 0 0 0 0 0 0 0 0 0 0
0 0 0 0 0 0 0 0 0 0 0 0 0 0 0 0 0 0 0 0 0 0 0 0 0 0 0 0 0 0 0 0 0 0 0 0 0 0 0 0 0 0 0

GEFSMA_con_probscp_144.txt.gz
Probability
0 0 0 0 0 0 0 0 0 0 0 0 0 0 0 0 0 0 0 0 0 0 0 0 0 0 0 0 0 0 0 0 0 0 0 0 0 0 0 0 0 0 0
1 0 0 0 0 0 0 0 0 0 0 0 0 0 0 0 0 0 0 0 0 0 0 0 0 0 0 0 0 0 0 0 0 0 0 0 0 0 0 0 0 0 0
2 1 1 0 0 0 0 0 0 0 0 0 0 0 0 0 0 0 0 0 0 0 0 0 0 0 0 0 0 0 0 0 0 0 0 0 0 0 0 0 0 0 0
3 3 2 1 1 0 0 0 0 0 0 0 0 0 0 0 0 0 0 0 0 0 0 0 0 0 0 0 0 0 0 0 0 0 0 0 0 0 0 0 0 0 0
3 3 3 3 2 1 0 0 0 0 0 0 0 0 0 0 0 0 0 0 0 0 0 0 0 0 0 1 1 0 0 0 0 0 0 0 0 0 0 0 0 0 0
3 3 3 3 3 2 1 0 0 0 0 0 0 0 0 0 0 0 0 0 0 0 0 0 0 0 0 1 1 0 0 0 0 0 0 0 0 0 0 0 0 0 0
3 3 3 3 3 4 3 2 1 0 0 0 0 0 0 0 0 0 0 0 0 0 0 0 0 0 0 1 1 0 0 0 0 0 0 0 0 0 0 0 0 0 0
3 3 3 3 4 4 4 4 4 2 1 1 2 1 0 0 0 0 0 0 0 0 0 1 1 1 0 1 1 1 2 2 0 0 0 0 0 0 0 0 0 0 0
3 3 3 3 3 3 4 5 6 5 4 4 5 4 1 1 1 1 0 0 0 1 1 1 2 1 1 2 2 2 3 3 1 1 1 1 0 0 0 0 0 0 0
2 2 3 4 2 2 3 4 5 6 6 6 6 5 3 2 2 1 0 0 0 1 1 2 2 2 2 2 2 2 2 2 1 1 2 1 0 0 0 0 0 0 0
2 2 3 4 3 2 1 2 3 6 7 6 7 7 5 4 2 1 0 0 0 0 1 2 3 4 3 3 2 1 1 0 0 1 1 1 1 2 1 1 1 0 0
2 2 3 5 6 4 2 2 3 5 6 6 7 8 8 7 4 3 1 0 0 1 1 2 3 5 5 4 4 2 0 0 0 0 0 1 2 3 3 2 1 0 0
2 3 3 5 7 6 4 3 3 4 4 5 6 8 10 9 7 6 4 1 1 2 4 3 4 5 6 6 5 3 1 0 0 0 0 0 1 2 1 1 1 0 0
3 2 2 3 5 5 4 4 4 4 4 3 4 8 11 11 10 9 6 4 3 3 5 5 5 6 7 7 6 4 3 1 0 0 0 0 0 0 0 0 0 0 0
3 2 0 1 3 2 2 4 5 5 7 6 6 9 10 12 14 13 10 8 6 5 5 6 7 7 6 5 4 5 4 2 0 0 0 0 0 0 0 0 0 0 0
3 2 0 1 2 2 3 3 5 7 8 9 10 9 10 12 15 15 12 10 10 9 8 8 7 5 3 2 3 5 5 2 0 0 0 0 0 0 0 0 0 0 0
2 1 0 0 2 3 4 3 4 6 7 8 8 8 8 10 12 11 8 7 9 9 9 8 6 4 2 2 3 5 4 1 0 0 0 0 0 0 0 0 0 0 0
3 1 0 0 2 3 4 4 4 5 5 6 5 5 6 8 9 7 5 4 5 7 8 7 5 5 4 2 3 4 3 1 0 0 0 0 0 0 0 0 0 0 0
3 1 0 1 2 3 3 4 5 4 5 6 5 5 6 7 8 7 6 5 4 6 8 8 6 6 5 3 2 3 3 2 1 0 0 0 0 0 0 0 0 0 0
3 2 1 2 3 3 4 5 5 5 6 7 7 7 6 6 6 6 6 6 6 8 11 9 7 6 5 3 3 3 3 2 2 1 0 0 0 0 0 0 0 0 0
3 4 3 3 3 3 3 4 4 5 6 6 7 7 5 3 3 3 4 5 6 9 12 11 9 7 6 4 3 2 1 1 2 1 1 0 0 0 0 0 0 0 0
4 5 4 3 4 3 3 2 2 3 4 6 6 5 3 1 1 1 2 2 3 6 8 9 9 8 7 5 3 2 1 1 2 3 2 1 0 0 0 0 0 0 0
6 6 6 6 5 4 3 1 0 1 3 4 5 4 2 1 1 1 0 0 0 1 3 4 5 6 7 5 3 3 2 3 3 3 3 2 1 0 0 0 0 0 0
8 9 9 9 8 6 3 1 0 1 2 4 4 3 3 2 1 0 0 0 0 0 0 1 2 4 5 4 3 3 3 3 3 3 3 3 2 1 0 0 0 0 0
11 11 11 11 9 6 2 0 1 2 3 4 4 3 2 2 1 0 0 0 0 0 0 0 0 1 2 2 2 3 3 3 3 3 2 2 2 1 0 0 0 0 0
12 12 11 10 10 7 2 0 1 2 4 4 4 2 1 1 0 0 0 0 0 0 0 0 0 0 0 0 1 3 3 3 3 2 1 1 1 0 0 0 0 0 0

GEFSMA_con_probscp_150.txt.gz
Probability
1 2 2 1 0 0 0 0 0 0 0 0 0 0 0 0 0 0 0 0 0 0 0 0 1 2 2 1 0 0 0 0 0 0 0 0 0 0 0 0 0 0 0
2 3 4 2 1 0 1 1 0 0 0 0 0 0 0 0 0 0 0 0 0 1 1 1 1 1 1 0 0 0 0 0 0 0 0 0 0 0 0 0 0 0 0
3 4 4 2 1 1 2 2 1 1 0 0 0 0 0 0 0 0 0 0 0 1 2 2 2 2 1 1 1 0 0 0 0 0 0 0 0 0 0 0 0 0 0
4 4 3 3 3 4 3 2 3 2 1 0 0 1 1 1 1 1 1 1 1 2 3 4 3 3 3 2 2 1 0 0 0 0 0 0 0 0 0 0 0 0 0
6 6 5 5 6 6 4 3 4 4 3 1 1 2 2 3 4 3 3 4 4 3 4 4 4 3 3 3 2 1 0 0 0 0 0 0 0 0 0 0 0 0 0
7 8 8 8 9 8 7 6 6 6 6 5 3 3 3 4 5 5 5 5 5 5 5 6 6 4 3 2 1 0 0 0 0 0 0 0 0 0 0 0 0 0 0
7 7 9 10 10 10 11 10 9 8 8 7 6 4 3 2 3 5 5 5 5 5 6 8 8 7 4 1 0 1 1 1 1 1 1 0 0 0 0 0 0 0 0
9 9 10 11 10 10 12 12 10 9 8 8 8 6 3 1 1 3 4 4 4 5 6 8 10 10 6 2 1 1 2 3 3 2 1 0 0 0 0 0 0 0 0
12 12 12 13 12 10 10 10 9 8 7 7 7 7 5 4 3 4 4 4 5 6 6 6 8 11 9 6 3 2 2 3 4 3 1 0 0 0 0 0 0 0 0
13 13 15 17 17 13 10 9 8 8 7 5 6 7 6 6 6 6 5 4 5 6 6 6 7 9 10 9 7 4 2 2 3 3 1 0 1 1 1 1 1 1 1
11 12 15 20 19 15 11 9 9 10 10 8 7 8 8 8 7 6 4 3 4 6 7 7 8 9 11 11 9 6 2 1 1 1 1 1 1 2 2 1 1 0 0
12 12 14 17 16 14 14 14 14 15 13 12 10 11 11 10 8 4 2 2 3 4 6 8 9 9 10 10 8 5 4 1 0 0 0 0 1 1 1 1 0 0 0
12 11 13 16 15 13 14 16 17 16 15 13 12 11 11 10 8 5 2 1 1 3 5 7 8 8 8 8 7 6 4 1 0 0 0 0 0 1 1 0 0 0 0
12 11 14 16 15 12 11 13 14 14 15 14 12 11 10 9 8 7 5 2 0 1 2 3 4 6 7 7 6 5 4 1 0 0 0 0 0 1 1 0 0 0 0
13 12 13 15 14 12 10 11 12 12 13 14 13 13 12 11 9 9 8 5 2 1 0 1 2 5 7 7 4 4 4 1 0 0 0 0 0 0 0 0 0 0 0
13 12 12 13 12 10 9 10 10 11 11 12 12 11 12 12 10 9 8 8 7 4 2 2 3 5 7 5 3 4 4 2 0 0 0 0 0 0 0 0 0 0 0
13 12 12 11 9 5 4 5 7 9 9 7 7 8 9 11 11 9 7 8 10 8 6 5 6 7 7 6 5 6 5 2 1 0 0 0 0 0 0 0 0 0 0
13 12 11 9 6 3 3 5 6 6 5 4 4 5 7 9 10 7 5 7 9 9 8 8 8 8 8 9 10 7 3 2 1 0 0 0 0 0 0 0 0 0 0
10 9 8 8 6 5 6 7 7 5 4 4 5 6 7 8 8 6 5 6 7 7 7 8 8 7 7 9 10 6 2 1 1 0 0 0 0 0 0 0 0 0 0
5 5 6 7 6 6 7 8 8 7 6 6 7 8 9 8 7 5 4 5 6 6 7 6 6 5 6 7 7 5 3 2 2 1 0 0 0 0 0 0 0 0 0
4 4 5 6 5 4 4 6 7 8 9 9 9 9 8 7 5 3 3 3 4 6 7 6 4 4 4 4 4 4 3 3 3 2 1 0 0 0 0 0 0 0 0
6 5 5 5 4 2 2 2 4 7 9 10 9 8 6 4 2 1 1 1 2 4 5 4 3 3 2 2 1 2 2 3 3 3 2 1 0 0 0 0 0 0 0
8 6 5 5 4 3 1 0 1 5 8 9 9 9 7 4 2 0 0 0 1 1 2 2 3 3 2 0 0 0 1 1 2 3 3 2 1 0 0 0 0 0 0
9 8 7 8 7 4 2 0 1 3 5 7 8 8 7 5 2 1 0 0 0 0 0 1 1 2 1 0 0 0 0 0 1 2 3 3 2 1 1 0 0 0 0
10 9 8 9 8 5 2 0 1 2 3 5 5 5 5 4 3 1 1 1 1 1 0 0 0 0 0 0 0 0 0 0 0 1 2 3 3 3 2 1 0 0 0
10 9 9 9 8 5 2 1 0 1 2 3 4 3 3 3 2 1 1 2 2 2 1 0 0 0 0 0 0 0 0 0 0 0 1 3 3 3 2 1 0 0 0

GEFSMA_con_probscp_156.txt.gz
Probability
0 0 0 0 0 0 0 0 0 0 0 0 0 0 0 0 0 0 0 0 0 0 0 0 0 0 0 0 0 0 0 0 0 0 0 0 0 0 0 0 0 0 0
0 0 0 0 0 0 0 0 0 0 0 0 0 0 0 0 0 0 0 0 0 0 1 1 1 0 0 0 0 0 0 0 0 0 0 0 0 0 0 0 0 0 0
0 0 0 0 0 0 0 0 0 0 0 0 0 0 0 0 0 0 0 0 0 0 1 2 1 0 0 0 1 0 0 0 0 0 0 0 0 0 0 0 0 0 0
1 1 0 0 0 0 0 0 0 0 0 0 0 0 0 0 0 0 0 0 0 0 1 1 1 0 0 0 0 0 0 0 0 0 0 0 0 0 0 0 0 0 0
2 2 1 1 1 1 1 0 1 1 1 0 0 0 0 0 0 0 0 0 0 0 0 0 1 0 0 0 0 0 0 0 0 0 0 0 0 0 0 0 0 0 0
2 3 3 2 2 2 2 1 1 2 1 0 0 0 0 0 0 0 0 0 0 0 0 0 0 0 0 0 0 0 0 0 0 0 0 0 0 0 0 0 0 0 0
2 3 3 3 3 3 3 2 1 1 1 0 0 0 0 0 0 0 0 0 0 0 0 0 0 0 0 0 0 0 0 1 1 1 1 0 0 0 0 0 0 0 0
1 2 3 3 3 3 3 3 2 0 0 0 0 0 0 0 0 0 0 0 0 0 0 0 0 0 0 0 0 0 0 1 2 2 2 1 1 1 0 0 0 0 0
0 1 2 3 4 4 3 2 1 0 0 0 0 0 0 0 0 0 0 0 0 0 0 1 1 0 0 0 0 0 1 2 3 3 3 3 2 1 0 0 0 0 0
0 0 1 2 3 4 3 1 0 0 0 0 0 0 0 0 0 0 0 0 0 0 0 1 1 0 0 0 0 0 1 2 3 3 3 3 3 1 0 0 0 0 0
1 1 0 0 2 2 1 0 0 0 0 0 0 0 0 0 0 0 0 0 0 0 0 1 1 0 0 0 0 0 1 2 3 3 3 3 2 1 0 0 0 0 0
3 2 1 1 1 1 0 0 0 0 0 0 0 0 0 0 0 0 0 0 0 0 0 0 0 0 0 0 0 0 1 1 2 2 2 3 2 1 1 1 1 0 0
3 3 2 2 2 1 1 1 0 0 0 0 0 0 0 0 0 0 0 0 0 0 0 0 0 0 0 0 0 0 1 1 0 0 1 2 2 2 1 1 0 0 0
2 2 2 1 1 1 1 1 0 0 0 0 0 0 0 0 0 0 0 0 0 0 0 0 0 0 0 0 0 0 0 0 0 0 0 1 1 1 1 0 0 0 0
2 2 2 2 1 1 1 1 0 0 0 0 0 0 0 0 0 0 0 0 0 0 0 0 0 0 0 0 0 0 0 0 0 0 0 0 0 0 0 0 0 0 0
3 3 3 3 2 1 0 0 0 0 0 0 0 0 0 0 0 0 0 0 0 0 0 0 0 0 0 0 0 0 0 0 0 0 0 0 0 0 0 0 0 0 0
2 2 2 2 2 1 0 0 0 0 0 0 0 0 0 0 0 0 0 0 0 0 0 0 0 0 0 0 0 0 0 0 0 0 0 0 0 0 0 0 0 0 0
1 1 1 1 1 1 0 0 0 0 0 0 0 0 0 0 0 0 0 0 0 0 0 0 0 0 0 0 0 0 0 0 0 0 0 0 0 0 0 0 0 0 0
0 0 0 0 0 0 0 0 0 0 0 0 0 0 0 0 0 0 0 0 0 0 0 0 0 0 0 0 0 0 0 0 0 0 0 0 0 0 0 0 0 0 0
0 0 0 0 0 0 0 0 0 0 0 0 0 0 0 0 0 0 0 0 0 0 0 0 0 0 0 0 0 0 0 0 0 0 0 0 0 0 0 0 0 0 0
0 0 0 0 0 0 0 0 0 0 0 0 0 0 0 0 0 0 0 0 0 0 0 0 0 0 0 0 0 0 0 0 0 0 0 0 0 0 0 0 0 0 0
0 0 0 1 1 0 0 0 0 0 0 0 0 0 0 0 0 0 0 0 0 0 0 0 0 0 0 0 0 0 0 0 0 0 0 0 0 0 0 0 0 0 0
0 0 1 1 0 0 0 0 0 0 0 0 0 0 0 0 0 0 0 0 0 0 0 0 0 0 0 0 0 0 0 0 0 0 0 0 0 0 0 0 0 0 0
0 0 0 0 0 0 0 0 0 0 0 0 0 0 0 0 0 0 0 0 0 0 0 0 0 0 0 0 0 0 0 0 0 0 0 0 0 0 0 0 0 0 0
0 0 0 0 0 0 0 0 0 0 0 0 0 0 0 0 0 0 0 0 0 0 0 0 0 0 0 0 0 0 0 0 0 0 0 0 0 0 0 0 0 0 0
0 0 0 0 0 0 0 0 0 0 0 0 0 0 0 0 0 0 0 0 0 0 0 0 0 0 0 0 0 0 0 0 0 0 0 0 0 0 0 0 0 0 0

GEFSMA_con_probscp_162.txt.gz
Probability
0 0 0 0 0 0 0 0 0 0 0 0 0 0 0 0 0 0 0 0 0 0 0 0 0 0 0 0 0 0 0 0 0 0 0 0 0 0 0 0 0 0 0
0 0 0 0 0 0 0 0 0 0 0 0 0 0 0 0 0 0 0 0 0 0 0 0 0 0 0 0 0 0 0 1 1 1 0 0 0 0 0 0 0 0 0
0 0 0 0 0 0 0 0 0 0 0 0 0 0 0 0 0 0 0 0 0 0 0 1 1 1 0 0 0 0 0 1 2 2 1 0 0 0 0 0 0 0 0
0 0 0 0 0 0 0 0 0 0 0 0 0 0 0 0 0 0 0 0 0 0 0 1 2 2 1 0 0 0 0 1 1 1 1 0 0 0 0 0 0 0 0
0 0 0 0 0 0 1 1 1 0 0 0 0 0 0 0 0 0 0 0 0 0 0 1 1 2 1 1 0 0 0 0 0 0 0 0 0 0 0 0 0 0 0
0 0 0 0 0 1 2 2 2 1 1 1 0 0 0 0 0 0 0 0 0 0 0 0 0 1 1 1 1 1 1 0 0 0 0 0 0 0 0 0 0 0 0
0 0 0 0 0 1 2 3 3 3 2 2 1 0 0 0 0 0 0 0 0 0 0 0 0 0 0 0 1 1 1 0 0 0 0 0 0 0 0 0 0 0 0
0 0 0 0 0 0 1 1 2 2 2 2 1 0 0 0 0 0 0 0 0 0 0 0 0 0 0 0 0 1 1 0 1 1 1 1 1 0 0 0 0 0 0
0 0 0 0 0 0 0 0 1 1 1 1 1 0 0 0 0 0 0 0 0 0 0 0 0 0 0 0 0 0 0 0 1 2 2 2 2 1 0 0 0 0 0
0 0 1 1 1 0 0 0 0 0 0 0 0 0 0 0 0 0 0 0 0 0 0 0 0 0 0 0 0 0 0 0 1 2 3 3 2 1 0 0 0 0 0
0 0 1 2 1 1 0 0 0 0 0 0 0 0 0 0 0 0 0 0 0 0 0 0 0 0 0 0 0 0 0 0 0 1 2 1 1 1 0 0 0 0 0
0 0 1 1 0 0 0 0 0 0 0 0 0 0 0 0 0 0 0 0 0 0 0 0 0 0 0 0 0 0 0 0 0 0 0 1 1 2 1 1 1 0 0
0 0 0 0 0 0 0 0 0 0 0 0 0 0 0 0 0 0 0 0 0 0 0 0 0 0 0 0 0 0 0 0 0 0 0 0 1 2 2 2 1 0 0
0 0 0 0 0 0 0 0 0 0 0 0 0 0 0 0 0 0 0 0 0 0 0 0 0 0 0 0 0 0 0 0 0 0 0 0 0 1 2 2 1 0 0
0 0 0 0 0 0 0 0 0 0 0 0 0 0 0 0 0 0 0 0 0 0 0 0 0 0 0 0 0 0 0 0 0 0 0 0 0 0 1 1 1 0 0
0 0 0 0 0 0 0 0 0 0 0 0 0 0 0 0 0 0 0 0 0 0 0 0 0 0 0 0 0 0 0 0 0 0 0 0 0 0 0 0 0 0 0
0 0 1 1 1 0 0 0 0 0 0 0 0 0 0 0 0 0 0 0 0 0 0 0 0 0 0 0 0 0 0 0 0 0 0 0 0 0 0 0 0 0 0
0 0 1 2 1 0 0 0 0 0 0 0 0 0 0 0 0 0 0 0 0 0 0 0 0 0 0 0 0 0 0 0 0 0 0 0 0 0 0 0 0 0 0
0 0 1 1 1 0 0 0 0 0 0 0 0 0 0 0 0 0 0 0 0 0 0 0 0 0 0 0 0 0 0 0 0 0 0 0 0 0 0 0 0 0 0
1 1 0 0 0 0 0 0 0 0 0 0 0 0 0 0 0 0 0 0 0 0 0 0 0 0 0 0 0 0 0 0 0 0 0 0 0 0 0 0 0 0 0
2 1 0 0 0 0 0 0 0 0 0 0 0 0 0 0 0 0 0 0 0 0 0 0 0 0 0 0 0 0 0 0 0 0 0 0 0 0 0 0 0 0 0
2 1 0 0 0 0 0 0 0 0 0 0 0 0 0 0 0 0 0 0 0 0 0 0 0 0 0 0 0 0 0 0 0 0 0 0 0 0 0 0 0 0 0
1 0 0 0 0 0 0 0 0 0 0 0 0 0 0 0 0 0 0 0 0 0 0 0 0 0 0 0 0 0 0 0 0 0 0 0 0 0 0 0 0 0 0
0 0 0 0 0 0 0 0 0 0 0 0 0 0 0 0 0 0 0 0 0 0 0 0 0 0 0 0 0 0 0 0 0 0 0 0 0 0 0 0 0 0 0
0 0 0 0 0 0 0 0 0 0 0 0 0 0 0 0 0 0 0 0 0 0 0 0 0 0 0 0 0 0 0 0 0 0 0 0 0 0 0 0 0 0 0
0 0 0 0 0 0 0 0 0 0 0 0 0 0 0 0 0 0 0 0 0 0 0 0 0 0 0 0 0 0 0 0 0 0 0 0 0 0 0 0 0 0 0

GEFSMA_con_probscp_168.txt.gz
Probability
0 0 0 0 0 0 0 0 0 0 0 0 0 0 0 0 0 0 0 0 0 0 0 0 0 0 0 0 0 0 0 0 0 0 0 0 0 0 0 0 0 0 0
0 0 0 0 0 0 0 0 0 0 0 0 0 0 0 0 0 0 0 0 0 0 0 0 0 0 0 0 0 0 0 0 0 0 0 0 0 0 0 0 0 0 0
0 0 0 0 0 0 0 0 0 0 0 0 0 0 0 0 0 0 0 0 0 0 0 1 1 1 0 0 0 0 0 0 0 0 0 0 0 0 0 0 0 0 0
0 0 0 0 0 0 0 0 0 0 0 0 0 0 0 0 0 0 0 0 0 0 0 1 2 1 0 0 0 0 0 0 0 0 0 0 0 0 0 0 0 0 0
0 0 0 0 0 0 0 0 0 0 0 0 0 0 0 0 0 0 0 0 0 0 0 1 2 1 0 0 0 0 0 0 0 0 0 0 0 0 0 0 0 0 0
0 0 0 0 0 0 0 0 0 0 0 1 1 0 0 0 0 0 0 0 0 0 0 1 1 0 0 0 0 0 0 0 0 0 0 0 0 0 0 0 0 0 0
1 1 1 1 1 0 0 0 0 0 1 2 2 1 0 0 0 0 0 1 0 0 1 2 2 1 1 0 0 0 0 0 1 0 0 0 0 0 0 0 0 0 0
0 1 1 1 1 0 0 0 0 0 1 2 2 2 1 0 1 0 1 2 1 1 3 5 5 4 3 2 1 0 0 0 0 0 0 0 0 0 0 0 0 0 0
0 1 1 1 0 0 0 0 0 0 0 1 2 2 1 0 0 0 0 1 2 2 3 4 5 5 5 6 4 2 1 0 0 1 1 1 1 1 0 0 1 0 0
1 1 1 0 0 0 0 0 1 2 2 1 2 2 1 1 1 1 0 1 2 2 3 3 3 4 6 8 8 5 2 1 0 1 2 3 4 2 1 0 0 0 0
1 1 1 0 0 0 0 1 2 4 5 4 3 2 2 3 3 3 2 1 1 2 4 5 5 5 5 7 8 6 4 2 0 1 2 4 4 3 2 1 0 0 0
3 2 1 0 0 0 1 3 4 6 7 6 3 2 2 4 6 7 4 2 2 3 4 6 7 7 7 7 7 7 5 2 0 0 0 2 2 2 2 1 0 0 0
4 3 1 0 0 0 2 5 7 8 8 7 5 3 3 5 6 7 6 3 2 3 3 4 5 7 8 9 9 6 4 2 0 0 0 0 1 1 2 1 0 0 0
4 3 2 1 1 2 4 7 8 9 9 8 7 7 6 5 6 6 7 6 3 1 2 2 4 6 8 9 8 6 4 2 0 0 0 0 0 0 1 1 0 0 0
3 3 3 3 3 4 6 8 8 9 10 9 9 9 7 5 5 7 9 9 5 1 1 2 4 5 5 6 5 5 5 2 0 0 0 0 0 0 0 0 0 0 0
3 4 4 4 5 6 8 9 8 9 10 10 9 8 7 6 6 7 9 9 7 4 3 2 3 3 3 2 2 3 3 2 0 0 0 0 0 0 0 0 0 0 0
5 5 5 4 5 7 8 10 9 8 8 9 9 8 8 7 6 7 7 7 8 7 5 3 2 3 2 1 1 1 1 1 0 0 0 0 0 0 0 0 0 0 0
7 7 6 4 5 7 8 9 8 7 6 7 8 9 9 8 7 5 5 4 5 5 4 3 2 2 1 0 0 0 0 1 0 0 0 0 0 0 0 0 0 0 0
10 9 7 5 5 6 6 6 6 6 6 7 8 8 7 7 6 4 3 2 2 2 2 1 1 1 1 0 0 0 0 1 0 0 0 0 0 0 0 0 0 0 0
11 10 8 6 5 3 3 3 4 5 6 6 6 5 4 4 3 2 1 1 1 1 1 1 1 1 0 0 0 0 0 0 0 0 0 0 0 0 0 0 0 0 0
11 11 10 7 4 1 1 1 2 3 4 5 5 3 1 1 1 0 0 0 0 0 1 1 2 1 0 0 0 0 0 0 0 0 0 0 0 0 0 0 0 0 0
11 10 10 8 4 1 0 1 2 2 3 3 4 2 1 0 0 0 0 0 0 0 0 1 1 1 0 0 0 0 0 0 0 0 0 1 1 1 0 0 0 0 0
9 8 7 6 3 1 0 0 1 1 1 2 2 1 0 0 0 0 0 0 0 0 0 0 0 0 0 0 0 0 0 0 0 1 2 1 1 1 1 1 0 0 0
11 9 8 6 5 3 1 0 0 0 0 0 0 0 0 0 0 0 0 0 0 0 0 0 0 0 0 0 0 0 0 0 0 2 3 2 1 1 1 1 0 0 0
16 14 12 10 7 5 2 0 0 0 0 0 1 1 0 0 0 0 0 0 0 0 0 0 0 0 0 0 0 0 0 0 0 1 3 3 3 2 2 2 1 1 0
20 17 14 12 10 7 3 1 0 0 0 1 2 2 1 0 0 0 0 0 0 0 0 0 0 0 0 0 0 0 0 0 0 1 2 3 3 3 3 2 2 2 1

GEFSMA_con_probscp_174.txt.gz
Probability
3 1 1 1 1 1 1 0 0 0 0 0 0 0 0 0 0 0 0 0 0 0 0 0 0 0 0 0 0 0 0 0 0 0 0 0 0 0 0 0 0 0 0
3 2 1 1 1 2 2 1 0 0 0 0 0 0 0 0 0 0 0 0 0 1 1 1 0 0 0 0 0 0 0 0 0 0 0 0 0 0 0 0 0 0 0
4 3 1 1 2 3 3 2 1 0 0 0 0 0 0 0 1 1 2 2 1 2 2 2 1 0 0 0 0 0 0 0 0 0 0 0 0 0 0 0 0 0 0
4 3 1 1 1 2 3 2 1 1 1 0 0 0 0 1 2 3 5 5 4 4 4 4 3 1 1 1 1 0 0 0 0 0 0 0 0 0 0 0 0 0 0
4 4 2 1 0 1 2 1 1 1 2 1 0 0 1 2 4 5 6 8 8 8 8 7 6 4 3 4 4 3 2 2 2 1 1 0 0 0 0 0 0 0 0
4 5 4 2 1 1 2 1 0 1 2 1 1 0 1 4 6 7 9 10 10 11 11 12 10 8 7 7 8 7 6 5 4 3 2 1 1 1 1 1 0 0 0
5 5 4 3 2 2 3 1 0 0 1 2 2 1 1 3 5 7 9 10 10 10 12 14 14 12 10 8 8 9 9 8 5 4 3 3 3 2 2 2 1 1 1
5 5 5 4 3 3 3 1 0 1 1 2 2 1 0 1 2 4 7 8 8 9 11 13 15 15 14 12 9 9 10 10 8 6 5 4 4 4 4 4 3 2 2
9 8 7 5 4 4 3 1 1 3 4 4 3 2 1 1 1 1 3 5 7 9 10 11 13 17 20 19 16 12 11 12 12 11 9 7 6 5 5 6 5 3 1
14 13 11 10 8 5 4 3 4 7 8 7 6 5 4 3 1 1 1 2 4 7 9 9 10 15 21 24 23 19 15 13 14 14 13 12 10 8 7 5 4 1 0
17 16 16 16 14 10 8 6 7 9 10 10 10 9 7 6 3 1 0 0 1 4 6 7 7 10 16 21 24 22 18 14 13 13 14 14 12 11 9 7 4 1 0
18 17 17 19 18 15 13 11 10 11 11 12 12 11 9 7 5 3 1 0 0 1 3 5 5 7 10 13 16 18 16 12 8 7 9 10 10 10 10 9 7 3 1
17 17 17 17 17 16 15 14 13 11 11 11 11 9 8 7 5 3 1 0 0 0 2 4 5 6 7 7 8 10 10 6 3 2 3 3 4 5 6 8 8 5 2
15 17 18 16 15 16 16 15 14 13 12 11 10 9 10 8 6 6 4 1 0 0 1 3 5 5 5 5 5 6 5 2 0 0 0 0 0 0 1 4 5 4 2
14 16 17 15 15 15 16 15 14 14 16 14 12 11 12 11 9 9 7 3 1 1 1 2 4 5 5 4 3 5 4 2 0 0 0 0 0 0 0 1 1 1 1
14 16 16 16 15 15 15 15 15 16 17 16 13 11 10 10 9 9 7 4 3 2 2 2 3 4 5 3 2 3 3 1 0 0 0 0 0 0 0 0 0 0 0
15 17 18 17 16 15 15 16 17 17 17 14 11 9 8 8 8 7 5 3 3 3 3 3 2 2 2 1 0 1 1 0 0 0 0 0 0 0 0 0 0 0 0
17 18 19 19 17 15 15 16 17 17 14 11 8 8 8 8 7 5 3 2 3 3 2 2 1 0 0 0 0 0 0 0 0 0 0 0 0 0 0 0 0 0 0
18 18 19 20 19 16 15 15 15 12 9 8 7 6 7 7 6 4 1 1 2 1 1 1 0 0 0 0 0 0 0 0 0 0 0 0 0 0 0 0 0 0 0
17 18 19 20 19 16 13 13 12 9 6 6 6 6 6 6 5 3 1 0 0 0 0 0 0 0 0 0 0 0 0 0 0 0 0 0 0 0 0 0 0 0 0
18 19 20 19 16 12 9 9 9 8 6 6 6 6 5 4 3 1 0 0 0 0 0 0 0 0 0 0 0 0 0 0 0 0 0 0 0 0 0 0 0 0 0
25 25 22 18 12 7 5 5 6 8 9 8 6 5 3 1 1 0 0 0 0 0 0 0 0 0 0 0 0 0 0 0 0 0 0 0 0 0 0 0 0 0 0
33 31 25 18 12 6 3 2 3 8 12 12 9 6 4 2 1 1 1 0 0 0 0 0 0 0 0 0 0 0 0 0 0 0 0 0 0 0 0 0 0 0 0
37 34 27 20 14 8 3 0 1 6 13 14 11 9 8 6 4 3 2 1 0 0 0 0 0 0 0 0 0 0 0 0 0 0 0 0 0 0 0 1 0 0 0
39 36 29 24 20 12 5 0 1 5 11 12 11 10 9 7 4 2 2 1 0 0 0 0 0 0 0 0 0 0 0 0 0 0 0 0 0 0 0 0 0 0 0
39 36 31 28 23 16 7 1 1 5 10 10 9 9 7 4 2 1 1 1 1 0 0 0 0 0 0 0 0 0 0 0 0 0 0 0 0 0 0 0 0 0 0

GEFSMA_con_probscp_180.txt.gz
Probability
0 0 0 0 0 0 0 0 0 0 0 0 0 0 0 0 0 0 0 0 0 0 1 0 0 0 0 0 0 0 0 0 0 0 0 0 0 0 0 0 0 0 0
0 0 0 0 0 0 0 0 0 0 0 0 0 0 0 0 0 0 0 0 0 1 2 1 1 1 1 1 1 1 0 0 0 0 0 0 0 0 0 0 0 0 0
0 0 0 0 0 0 0 0 0 0 0 0 0 0 0 0 0 0 0 0 1 3 4 3 3 3 3 3 3 2 1 1 1 0 0 0 0 0 0 0 0 0 0
1 0 0 0 0 0 0 0 0 0 0 0 0 0 0 0 0 0 0 1 2 3 4 5 6 6 6 5 4 3 3 2 2 1 1 0 0 0 0 0 0 0 0
2 1 1 0 0 0 0 0 0 0 0 0 0 0 0 0 0 0 0 1 2 3 3 4 5 6 6 6 5 4 4 3 3 3 2 1 0 0 0 0 0 0 0
3 2 1 0 0 0 0 0 0 0 0 0 0 0 0 0 0 0 0 1 2 2 2 2 3 4 6 7 7 7 6 5 4 3 3 2 1 1 0 0 0 0 0
3 3 1 0 0 0 0 0 0 0 0 0 0 0 0 0 0 0 0 1 2 2 2 1 1 2 4 7 8 8 8 8 6 5 4 3 3 2 1 0 0 0 0
2 2 1 0 0 0 0 0 0 0 0 0 0 0 0 0 0 0 0 0 1 1 2 1 1 1 2 3 5 6 9 10 10 10 9 6 4 3 2 1 1 1 1
2 1 1 0 0 0 0 0 0 0 0 0 0 0 0 0 0 0 0 0 0 0 1 1 1 1 1 1 1 3 7 11 12 13 13 10 7 5 3 2 1 1 0
2 2 2 1 0 0 0 0 0 0 0 0 0 0 0 0 0 0 0 0 0 0 0 1 1 1 1 0 0 1 5 7 9 12 13 13 10 7 4 3 2 1 0
1 2 2 1 0 0 0 0 0 0 0 0 0 1 0 0 0 0 0 0 0 0 0 0 0 1 1 0 0 1 2 3 4 7 10 11 11 10 7 5 3 2 1
0 1 1 0 0 0 0 1 1 0 0 0 0 0 0 0 0 0 0 0 0 0 0 0 0 0 0 0 0 0 0 0 1 2 4 6 8 9 8 7 5 4 3
0 0 0 0 0 0 1 2 2 1 0 0 0 0 0 0 0 0 0 0 0 0 0 0 0 0 0 0 0 0 0 0 0 0 0 1 2 3 4 5 5 4 3
0 0 0 0 0 1 2 3 3 2 1 0 0 0 0 0 0 0 0 0 0 0 0 0 0 0 0 0 0 0 0 0 0 0 0 0 0 0 1 1 2 1 1
1 1 1 1 1 2 3 4 4 3 2 1 1 1 1 1 1 0 0 0 0 0 0 0 0 0 0 0 0 0 0 0 0 0 0 0 0 0 0 0 0 0 0
4 5 4 4 4 4 4 5 5 4 3 3 2 2 2 2 2 1 0 0 0 0 0 0 0 0 0 0 0 0 0 0 0 0 0 0 0 0 0 0 0 0 0
7 8 7 6 5 5 6 6 6 4 3 3 3 3 3 3 3 2 1 0 0 0 0 0 0 0 0 0 0 0 0 0 0 0 0 0 0 0 0 0 0 0 0
8 8 7 5 5 5 6 6 6 5 4 3 3 3 3 3 3 2 1 0 0 0 0 0 0 0 0 0 0 0 0 0 0 0 0 0 0 0 0 0 0 0 0
7 6 4 3 3 4 4 5 6 5 3 3 3 3 3 2 1 1 0 0 0 0 0 0 0 0 0 0 0 0 0 0 0 0 0 0 0 0 0 0 0 0 0
6 4 3 3 3 3 3 4 4 3 2 1 2 2 2 1 0 0 0 0 0 0 0 0 0 0 0 0 0 0 0 0 0 0 0 0 0 0 0 0 0 0 0
5 4 3 3 3 3 3 3 3 2 1 0 1 1 1 0 0 0 0 0 0 0 0 0 0 0 0 0 0 0 0 0 0 0 0 0 0 0 0 0 0 0 0
5 4 3 3 3 3 3 3 3 3 1 0 0 0 0 0 0 0 0 0 0 0 0 0 0 0 0 0 0 0 0 0 0 0 0 0 0 0 0 0 0 0 0
6 5 3 3 3 3 3 3 3 3 2 2 2 1 0 0 0 0 0 0 0 0 0 0 0 0 0 0 0 0 0 0 0 0 0 0 0 0 0 0 0 0 0
10 7 4 3 3 3 3 2 3 3 3 3 3 2 1 0 0 0 0 0 0 0 0 0 0 0 0 0 0 0 0 0 0 0 0 0 0 0 0 0 0 0 0
13 10 5 2 3 3 2 1 1 2 2 2 2 2 1 0 0 0 0 0 0 0 0 0 0 0 0 0 0 0 0 0 0 0 0 0 0 0 0 0 0 0 0
14 10 4 2 3 3 2 1 0 1 1 1 1 1 0 0 0 0 0 0 0 0 0 0 0 0 0 0 0 0 0 0 0 0 0 0 0 0 0 0 0 0 0

GEFSMA_con_probscp_186.txt.gz
Probability
0 0 0 0 0 0 0 0 0 0 0 0 0 0 0 0 0 0 0 0 0 0 0 0 0 0 0 0 0 0 0 0 0 0 0 0 0 0 0 0 0 0 0
0 0 0 0 0 0 0 0 0 0 0 0 0 0 0 0 0 0 0 0 0 0 0 0 0 0 0 0 0 0 0 0 0 0 0 0 0 0 0 0 0 0 0
0 0 0 0 0 0 0 0 0 0 0 0 0 0 0 0 0 0 0 0 0 0 1 1 0 0 0 0 0 0 1 1 1 0 0 0 0 0 0 0 0 0 0
0 0 0 0 0 0 0 0 0 0 0 0 0 0 0 0 0 0 0 0 0 0 1 1 0 0 0 0 0 1 2 2 2 1 1 0 0 0 0 0 0 0 0
0 0 0 0 0 0 0 0 0 0 0 0 0 0 0 0 0 0 0 0 0 0 1 1 0 0 0 0 1 2 2 2 2 2 2 1 1 1 0 0 0 0 0
0 0 0 0 0 0 0 0 0 0 0 0 0 0 0 0 0 0 0 0 0 0 0 0 0 1 1 1 1 2 1 1 2 3 3 3 2 2 1 0 0 0 0
0 0 0 0 0 0 0 0 0 0 0 0 0 0 0 0 0 0 0 0 0 0 0 0 0 1 1 1 1 1 1 2 2 3 3 3 3 2 1 0 0 0 0
0 0 0 0 0 0 0 0 0 0 0 0 0 0 0 0 0 0 0 0 0 0 0 0 0 1 1 0 0 0 2 3 3 3 3 3 2 2 1 0 0 0 0
0 0 0 0 0 0 0 0 0 0 0 0 0 0 0 0 0 0 0 0 0 0 0 0 0 0 0 0 0 0 1 1 1 1 2 3 4 4 3 2 1 0 0
0 0 0 0 0 0 0 0 0 0 0 0 0 0 0 0 0 0 0 0 0 0 0 0 0 0 0 0 0 0 0 0 0 1 2 3 5 6 6 5 2 0 0
0 0 0 0 0 0 0 0 0 0 1 1 1 0 0 0 0 0 0 0 0 0 0 0 0 0 0 0 0 0 0 0 0 1 2 3 4 5 6 6 3 1 0
0 0 0 0 0 0 0 0 1 1 2 2 2 1 1 1 0 0 0 0 0 0 0 0 0 0 0 0 0 0 0 0 0 0 1 2 2 3 4 4 4 2 1
0 0 0 0 0 0 1 1 2 3 3 3 3 3 3 2 1 0 0 0 0 0 0 0 0 0 0 0 0 0 0 0 0 0 0 1 1 1 1 2 3 2 1
0 0 1 1 1 1 2 3 3 3 3 3 3 3 4 4 3 1 1 0 0 0 0 0 0 0 0 0 0 0 0 0 0 0 0 0 0 0 0 1 1 1 0
1 1 2 2 1 2 3 3 3 3 3 3 4 4 5 4 3 3 2 1 0 0 0 0 0 0 0 0 0 0 0 0 0 0 0 0 0 0 0 0 0 0 0
2 3 3 2 1 2 3 3 3 3 3 4 5 6 5 4 3 3 3 2 1 0 0 0 0 0 0 0 0 0 0 0 0 0 0 0 0 0 0 0 0 0 0
4 4 3 2 1 2 3 3 3 3 3 4 5 5 4 3 2 2 3 3 2 1 0 0 0 0 0 0 0 0 0 0 0 0 0 0 0 0 0 0 0 0 0
5 4 3 2 2 3 3 3 3 3 3 3 4 3 2 1 1 1 1 2 2 1 0 0 0 0 0 0 0 0 0 0 0 0 0 0 0 0 0 0 0 0 0
4 3 3 3 3 3 3 3 3 3 3 3 3 3 2 1 1 0 0 1 1 0 0 0 0 0 0 0 0 0 0 0 0 0 0 0 0 0 0 0 0 0 0
2 2 3 3 3 3 3 3 3 3 3 3 3 3 3 3 2 1 0 0 0 0 0 0 0 0 0 0 0 0 0 0 0 0 0 0 0 0 0 0 0 0 0
2 2 3 3 2 2 2 2 2 3 3 3 3 3 3 3 2 1 0 0 0 0 0 0 0 0 0 0 0 0 0 0 0 0 0 0 0 0 0 0 0 0 0
6 5 4 3 1 1 1 1 1 1 2 3 3 3 3 3 2 1 0 0 0 0 0 0 0 0 0 0 0 0 0 0 0 0 0 0 0 0 0 0 0 0 0
14 10 6 4 2 1 0 0 0 0 1 1 3 3 3 2 1 0 0 0 0 0 0 0 0 0 0 0 0 0 0 0 0 0 0 0 0 0 0 0 0 0 0
16 13 8 5 3 1 0 0 0 0 0 1 2 2 2 1 0 0 0 0 0 0 0 0 0 0 0 0 0 0 0 0 0 0 0 0 0 0 0 0 0 0 0
16 13 9 6 3 1 0 0 0 1 1 1 1 1 1 0 0 0 0 0 0 0 0 0 0 0 0 0 0 0 0 0 0 0 0 0 0 0 0 0 0 0 0
17 13 9 6 4 2 1 0 1 2 2 2 1 0 0 0 0 0 0 0 0 0 0 0 0 0 0 0 0 0 0 0 0 0 0 0 0 0 0 0 0 0 0

GEFSMA_con_probscp_192.txt.gz
Probability
0 0 0 0 0 0 0 0 0 0 0 0 0 0 0 0 0 0 0 0 0 0 0 0 0 0 0 0 0 1 0 0 0 0 0 0 0 0 0 0 0 0 0
0 0 0 0 0 0 0 0 0 0 0 0 0 0 0 0 0 0 0 0 0 0 0 0 0 0 0 1 1 2 1 1 0 0 0 0 0 0 0 0 0 0 0
0 0 0 0 0 0 0 0 0 0 0 0 0 0 0 0 0 0 0 0 0 0 1 1 0 0 1 2 3 3 3 2 2 2 1 1 1 0 0 0 0 0 0
1 1 0 0 0 0 0 0 0 0 0 0 0 0 0 0 0 0 0 0 0 0 1 1 1 0 1 2 3 3 4 4 3 3 3 2 2 1 1 0 0 0 0
2 1 0 0 0 0 0 0 0 0 0 0 0 0 0 0 0 0 0 0 0 0 1 1 1 0 1 2 2 2 3 5 4 3 3 3 3 3 2 1 0 0 0
3 2 0 0 0 0 0 0 0 0 0 0 0 0 0 0 0 0 0 0 0 0 0 1 1 1 1 2 1 1 2 3 3 2 2 2 3 4 3 2 0 0 0
2 1 0 0 1 0 0 0 0 0 0 0 0 0 0 0 0 0 1 1 0 0 0 0 2 4 4 3 2 1 0 1 3 3 3 2 3 3 2 1 0 0 0
1 1 0 0 0 0 0 0 0 0 0 0 0 0 0 0 0 0 1 2 2 2 1 1 2 5 6 5 3 1 1 1 2 3 3 2 2 2 1 0 0 0 0
0 0 0 0 0 0 0 0 0 1 1 0 0 0 0 0 0 0 1 2 3 3 3 2 2 3 5 5 3 1 1 2 2 2 3 2 2 2 1 1 1 1 1
0 0 0 0 0 0 0 1 1 2 2 1 1 2 2 2 1 0 1 2 3 3 3 3 2 3 4 5 3 1 1 2 2 2 2 2 2 2 2 3 3 3 2
0 0 0 0 0 1 1 2 3 4 4 3 3 3 5 5 4 2 3 4 4 4 4 4 3 3 4 4 3 1 0 1 1 1 1 2 2 2 2 3 4 4 5
0 0 0 0 0 1 2 3 5 6 6 6 5 5 6 7 6 6 5 5 4 6 6 6 5 4 3 4 3 1 0 0 0 0 1 1 1 1 1 1 2 4 5
0 1 1 0 0 1 1 3 5 6 6 6 6 7 8 9 8 8 7 6 6 8 9 8 6 5 3 3 3 1 0 0 0 0 0 0 1 1 0 0 1 2 2
1 2 2 1 2 3 3 4 5 5 5 4 6 8 9 10 11 11 10 10 10 11 11 8 6 6 5 3 2 1 0 0 0 0 0 0 0 0 0 0 0 0 0
4 5 5 4 5 7 8 8 8 6 5 4 5 7 8 9 11 12 13 14 13 12 10 7 5 6 5 3 1 0 1 0 0 0 0 0 0 0 0 0 0 0 0
11 9 7 7 8 10 11 12 11 9 7 6 5 6 7 8 10 11 13 14 13 11 8 7 5 4 3 2 1 0 1 1 1 0 0 0 0 0 0 0 0 0 0
16 14 11 9 9 10 12 13 11 9 8 6 5 5 6 8 10 11 12 12 12 11 10 7 6 5 4 3 2 1 1 1 1 0 0 0 0 0 0 0 0 0 0
21 19 16 13 12 13 13 11 8 6 5 4 4 4 6 8 10 11 12 11 11 13 12 9 7 7 6 5 5 3 1 1 1 0 0 0 0 0 0 0 0 0 0
28 26 22 19 17 16 13 8 5 4 4 4 4 5 6 7 9 10 11 12 12 12 13 11 9 7 7 6 6 3 1 0 0 0 0 0 0 0 0 0 0 0 0
35 32 28 24 20 16 11 6 5 5 6 6 6 5 6 6 7 8 9 11 12 11 11 11 9 7 6 5 4 2 0 0 0 0 0 0 0 0 0 0 0 0 0
39 37 34 29 21 14 8 6 7 8 8 8 7 5 5 4 5 5 5 7 10 10 10 9 8 6 5 4 3 1 0 0 0 0 0 0 0 0 0 0 0 0 0
43 41 38 33 23 14 8 7 8 11 12 12 9 7 5 4 4 4 3 3 5 7 7 7 7 6 5 4 3 2 1 1 0 0 0 0 0 0 0 0 0 0 0
47 43 40 35 27 17 9 5 7 13 16 16 14 11 7 5 6 7 6 4 4 4 5 6 7 7 6 5 4 4 3 1 0 0 0 0 0 0 0 0 0 0 0
51 47 41 35 28 19 10 3 5 13 19 19 17 14 11 8 9 10 10 10 9 7 4 4 5 6 5 4 4 4 3 1 0 0 0 0 0 0 0 0 0 0 0
51 49 43 34 28 20 10 3 5 13 20 19 17 14 11 10 9 10 11 13 13 10 6 3 2 2 2 1 1 2 1 0 0 0 0 0 0 0 0 0 0 0 0
49 47 43 34 28 21 10 2 4 14 20 18 16 14 10 8 8 8 11 13 13 11 7 3 1 0 0 0 0 0 0 0 0 0 0 0 0 0 0 0 0 0 0

GEFSMA_con_probscp_198.txt.gz
Probability
0 0 0 0 0 0 1 1 1 0 0 0 0 0 0 0 0 1 3 4 4 4 4 3 3 3 2 1 0 1 2 2 2 1 0 0 0 0 0 0 0 0 0
0 0 1 1 0 0 1 2 2 1 1 1 1 0 0 0 1 2 4 5 6 6 5 4 4 3 2 0 0 1 1 2 3 2 1 0 0 0 0 0 0 0 0
1 1 1 1 1 1 3 4 3 1 1 2 1 0 0 0 1 2 3 4 6 6 6 5 5 4 2 1 1 2 3 3 4 3 1 0 0 0 0 0 0 0 0
2 2 2 2 3 4 4 3 2 1 1 1 1 0 0 1 2 3 2 3 4 5 5 6 7 7 5 3 3 4 6 7 6 4 1 0 0 0 0 0 0 0 0
2 3 3 5 7 7 4 2 1 1 1 1 0 0 1 1 2 2 2 3 3 4 5 6 10 10 8 6 6 6 7 8 7 4 1 0 0 0 0 0 0 0 0
4 4 4 6 8 8 6 4 3 3 2 1 0 0 1 1 1 2 4 4 5 5 6 8 13 14 12 10 8 7 7 6 5 5 3 2 1 0 0 0 0 0 0
6 5 4 5 7 8 6 5 5 4 3 1 0 0 1 1 1 3 5 7 7 7 8 12 17 18 16 12 9 7 6 5 4 6 6 4 2 1 1 0 0 0 0
7 6 4 4 5 6 7 7 7 6 4 2 1 0 0 1 2 4 7 11 11 11 11 13 17 20 19 14 9 7 7 6 5 6 6 5 3 3 2 1 0 0 0
9 7 4 3 2 4 7 8 8 7 6 4 3 2 2 2 3 4 8 10 12 13 13 12 14 18 19 17 13 10 8 6 5 6 6 6 4 3 3 2 1 1 0
9 7 4 3 3 5 7 8 8 7 6 4 4 5 4 4 4 5 6 6 8 12 13 12 12 15 18 19 17 13 9 6 5 6 7 6 5 4 4 4 3 2 1
13 10 8 8 7 6 8 9 8 7 6 5 4 4 5 5 6 6 6 5 6 9 11 12 12 15 18 19 17 13 9 6 4 4 5 5 5 5 5 5 4 3 2
24 19 16 16 14 11 11 12 11 10 9 7 6 4 4 4 6 7 7 6 7 7 9 11 13 15 16 15 14 11 8 5 2 2 2 2 3 3 4 4 4 2 1
32 29 25 23 21 18 17 16 16 14 12 10 8 6 5 4 6 8 8 7 6 7 9 11 14 14 11 10 10 9 6 3 1 0 0 0 1 1 1 2 2 1 1
34 36 33 28 26 23 21 21 19 16 15 13 10 9 8 6 8 10 10 8 7 7 9 11 13 13 11 9 6 5 3 2 0 0 0 0 0 0 0 0 1 1 0
38 42 39 32 29 26 24 24 20 17 17 16 13 13 11 8 9 12 12 11 9 8 9 11 14 14 14 10 5 2 2 1 0 0 0 0 0 0 0 0 0 0 0
45 47 43 35 30 28 26 25 22 18 17 17 17 16 14 11 10 11 12 12 12 10 9 11 13 14 13 9 4 3 3 2 0 0 0 0 0 0 0 0 0 0 0
47 47 45 39 33 28 26 27 25 21 17 16 15 14 15 14 13 12 12 13 13 12 10 10 11 11 11 9 6 4 4 2 1 0 0 0 0 0 0 0 0 0 0
47 46 45 43 38 30 28 28 26 21 17 15 12 13 15 15 15 15 14 13 13 12 11 10 10 11 12 11 8 6 5 4 2 1 0 0 0 0 0 0 0 0 0
51 49 47 47 43 37 33 32 27 22 19 17 16 17 17 15 15 15 14 12 11 11 12 11 12 13 13 11 9 7 7 7 4 1 0 0 0 0 0 0 0 0 0
57 54 51 49 47 41 37 35 30 25 23 22 21 20 19 15 13 12 12 11 11 11 12 14 14 15 13 11 9 7 7 7 5 3 1 0 0 0 0 0 0 0 0
58 57 55 52 47 39 32 31 31 28 26 25 23 21 18 13 10 8 8 9 10 11 12 13 14 13 13 10 7 5 5 5 4 4 2 1 0 0 0 0 0 0 0
58 57 56 53 47 34 24 23 26 28 29 28 26 23 18 11 7 6 5 5 7 9 11 12 13 13 13 10 6 3 3 2 3 5 3 1 0 0 0 0 0 0 0
59 57 55 53 46 31 19 17 20 27 30 30 28 26 21 14 9 7 6 5 5 7 9 11 13 13 13 11 7 4 2 1 2 4 3 2 2 1 0 0 0 0 0
59 57 55 53 46 31 18 13 16 23 28 30 28 26 23 16 10 9 9 8 8 8 8 9 11 11 11 11 8 4 3 3 2 3 3 3 3 2 1 0 0 0 0
58 56 55 54 48 33 17 9 12 19 25 29 28 25 21 15 9 8 10 11 10 10 8 7 7 7 6 6 6 4 4 4 3 2 3 3 3 3 2 1 0 0 0
57 57 56 55 50 36 17 7 10 17 23 28 28 24 18 11 6 6 9 12 11 10 10 7 5 4 4 4 4 4 4 5 4 3 3 3 3 3 1 1 1 1 0

GEFSMA_con_probscp_204.txt.gz
Probability
0 0 0 0 0 0 0 0 0 0 0 0 0 0 0 0 0 0 0 0 0 1 1 1 3 4 2 0 0 1 2 1 0 0 0 0 1 0 0 0 0 0 0
0 0 0 0 0 0 0 0 0 0 0 0 0 0 0 0 0 0 0 0 0 1 2 3 5 5 4 2 1 1 2 3 1 1 0 0 1 0 0 0 0 0 0
0 0 0 0 0 0 0 0 0 0 0 0 0 0 0 0 0 0 0 0 0 1 2 4 6 7 6 5 4 3 4 4 2 1 0 0 0 0 0 0 0 0 0
0 0 0 0 0 0 0 0 0 0 0 0 0 0 0 0 0 0 0 0 0 0 1 4 7 8 8 8 7 6 6 4 2 1 0 0 0 0 0 0 0 0 0
0 0 0 0 0 0 0 0 0 0 0 0 0 0 0 0 0 0 0 0 0 0 0 2 6 9 10 10 9 9 8 6 3 1 0 0 0 0 0 0 0 0 0
0 0 0 0 0 0 0 0 0 0 0 0 0 0 0 0 0 0 0 0 0 0 0 1 2 6 9 11 10 10 9 8 6 4 2 1 1 0 0 0 0 0 0
0 0 0 0 0 0 0 0 0 0 0 0 0 0 0 0 0 0 0 0 0 0 0 0 0 2 5 8 9 10 10 10 9 7 5 3 2 1 0 0 0 1 1
0 0 0 0 0 0 0 0 0 0 0 0 0 0 0 0 0 0 0 0 0 0 0 0 0 0 1 3 5 7 9 11 12 11 8 5 4 2 1 1 0 0 0
1 0 0 0 0 0 0 0 0 0 0 0 0 0 0 0 0 0 0 0 0 0 0 0 0 0 0 0 1 3 7 11 14 13 10 7 5 3 2 2 1 0 0
1 0 0 0 0 0 0 0 0 0 0 0 0 0 0 0 0 0 0 0 0 0 0 0 0 0 0 0 0 1 3 8 11 11 9 7 5 3 2 2 1 0 0
1 0 0 1 2 1 0 0 0 0 0 0 0 0 0 1 1 1 0 0 1 1 0 1 1 1 0 0 0 0 1 4 6 6 5 4 4 3 2 1 1 0 0
0 0 1 2 3 2 1 0 0 0 0 0 1 1 1 2 2 2 1 1 2 1 1 2 2 2 1 1 1 2 3 3 2 2 1 2 3 3 2 1 1 0 1
1 0 1 3 3 2 1 0 1 1 1 1 1 2 2 2 3 3 3 3 3 2 2 3 3 3 3 2 2 3 5 4 2 0 0 1 2 2 2 2 2 1 1
2 2 2 3 4 4 3 3 4 3 2 2 2 1 1 1 2 3 3 3 3 3 3 3 3 3 3 3 2 2 4 3 1 0 0 0 1 1 2 2 2 1 1
5 5 5 5 7 8 8 7 6 4 3 2 1 1 1 1 2 3 3 3 3 3 3 3 3 3 3 3 2 1 1 1 0 0 0 0 0 0 1 1 1 0 0
9 9 9 9 10 12 11 9 6 4 3 2 1 1 2 2 2 2 2 2 2 2 2 2 3 3 3 2 2 1 0 0 0 0 0 0 0 0 0 0 0 0 0
14 14 14 13 13 13 12 9 6 4 3 2 1 2 2 2 1 1 1 1 2 2 2 2 2 2 2 1 1 1 0 0 0 0 0 0 0 0 0 0 0 0 0
17 18 19 17 15 14 12 10 7 6 4 2 1 1 1 1 1 1 1 2 2 2 2 2 2 1 1 0 0 0 0 0 0 0 0 0 0 0 0 0 0 0 0
17 18 19 18 16 15 13 11 10 8 5 2 0 0 0 1 2 3 3 3 4 4 4 3 2 1 0 0 0 0 0 0 0 0 0 0 0 0 0 0 0 0 0
18 17 16 16 16 15 13 12 12 11 7 3 1 1 1 2 3 3 3 4 4 5 4 2 1 0 0 0 0 0 0 0 0 0 0 0 0 0 0 0 0 0 0
23 20 17 17 16 15 13 13 15 14 10 5 3 3 3 3 4 3 3 3 4 4 4 2 1 1 1 1 1 0 0 0 0 0 0 0 0 0 0 0 0 0 0
29 24 20 18 17 15 14 15 17 16 12 8 6 6 5 6 5 3 2 3 3 3 3 3 2 2 2 2 2 1 0 0 0 0 0 0 0 0 0 0 0 0 0
32 30 25 21 19 16 15 15 16 16 14 10 9 8 8 8 7 4 3 3 3 3 3 2 3 3 3 3 3 2 1 1 0 0 0 0 0 0 0 0 0 0 0
34 33 30 26 22 19 16 13 13 15 15 12 10 11 10 10 8 6 4 3 4 3 3 3 3 2 3 3 3 3 3 2 1 0 0 0 0 0 0 0 0 0 0
35 34 32 30 26 21 15 10 9 13 15 13 12 12 11 10 8 6 4 4 4 4 3 3 2 2 2 2 2 3 3 3 2 1 0 0 0 0 0 0 0 0 0
36 34 32 31 27 20 12 6 7 12 15 14 12 11 10 8 6 5 4 5 5 4 3 2 1 1 1 1 1 3 3 3 3 2 1 0 0 0 0 0 0 0 0

GEFSMA_con_probscp_210.txt.gz
Probability
0 0 0 0 0 0 0 0 0 0 0 0 0 0 0 0 0 0 0 0 0 0 0 0 0 0 0 0 0 0 0 0 0 0 0 0 0 0 0 0 0 0 0
0 0 0 0 0 0 0 0 0 0 0 0 0 0 0 0 0 0 0 0 0 0 0 0 0 0 0 0 0 0 0 0 0 0 0 0 0 0 0 0 0 0 0
0 0 0 0 0 0 0 0 0 0 0 0 0 0 0 0 0 0 0 0 0 0 0 0 0 0 0 0 0 0 0 0 0 0 0 0 0 0 0 0 0 0 0
0 0 0 0 0 0 0 0 0 0 0 0 0 0 0 0 0 0 0 0 0 0 0 0 0 0 0 0 0 0 0 0 0 0 0 0 0 0 0 0 0 0 0
0 0 0 0 0 0 0 0 0 0 0 0 0 0 0 0 0 0 0 0 0 0 0 0 0 0 0 0 0 0 0 0 0 1 1 1 0 0 0 0 0 0 0
0 0 0 0 0 0 0 0 0 0 0 0 0 0 0 0 0 0 0 0 0 0 0 0 0 0 0 0 0 1 1 1 1 1 3 2 1 0 0 0 0 0 0
0 0 0 0 0 0 0 0 0 0 0 0 0 0 0 0 0 0 0 0 0 0 0 0 0 0 0 0 0 0 0 1 1 2 4 3 2 2 1 1 0 0 0
0 0 0 1 1 0 0 0 0 0 0 0 0 0 0 0 0 0 0 0 0 0 0 0 0 0 0 0 0 0 1 1 2 3 4 4 4 3 2 1 1 0 0
0 0 1 2 2 1 0 0 0 0 0 0 0 0 0 0 0 0 0 0 0 0 0 0 0 0 0 0 0 0 1 1 1 3 4 5 4 4 3 2 1 1 0
0 1 1 3 3 1 1 0 0 0 0 0 0 0 0 0 0 0 0 0 0 0 0 0 0 0 0 0 0 0 1 1 0 1 3 5 5 5 4 3 3 1 0
1 2 3 4 4 3 2 1 0 0 0 0 0 0 0 0 0 0 0 0 0 0 0 0 0 0 0 0 0 0 0 0 0 1 3 5 6 7 6 5 4 3 1
3 4 5 6 6 5 3 2 1 0 0 0 0 0 0 0 0 0 0 0 0 0 0 0 0 0 0 0 0 0 0 0 0 0 2 5 6 6 7 7 6 5 4
5 6 8 9 9 7 5 2 1 0 0 1 1 1 1 0 0 0 0 0 0 0 0 0 0 0 0 0 0 0 0 0 0 0 1 2 3 4 6 7 6 5 4
7 8 10 10 10 8 5 2 0 0 0 1 2 2 1 0 0 0 0 1 1 0 0 0 0 0 0 0 0 0 0 0 0 0 0 0 1 2 3 4 3 2 2
8 9 11 11 10 8 5 2 1 1 1 2 2 1 1 0 0 0 0 1 1 0 0 0 0 0 0 0 0 0 0 0 0 0 0 0 0 1 1 1 1 0 0
10 11 13 12 11 8 7 5 3 3 4 5 4 2 1 1 1 1 0 1 1 0 0 0 0 0 0 0 0 0 0 0 0 0 0 0 0 0 0 0 0 0 0
15 14 15 14 12 9 8 6 5 5 7 7 6 4 3 3 2 2 1 1 1 0 0 0 0 0 0 0 0 0 0 0 0 0 0 0 0 0 0 0 0 0 0
17 16 16 15 13 12 10 9 9 10 11 10 9 8 7 5 4 3 3 3 3 2 1 0 1 1 1 0 0 0 0 0 0 0 0 0 0 0 0 0 0 0 0
17 17 15 15 16 16 15 16 16 17 16 14 13 12 10 7 5 3 3 4 4 4 3 1 1 2 2 1 1 1 0 0 0 0 0 0 0 0 0 0 0 0 0
17 16 14 15 18 19 18 20 21 21 19 18 16 14 12 9 6 4 3 4 4 4 3 1 1 2 2 1 1 2 1 0 0 0 0 0 0 0 0 0 0 0 0
17 15 13 14 17 17 17 18 20 20 20 19 18 15 13 11 8 5 5 5 6 4 3 2 2 3 3 1 1 1 1 0 0 0 0 0 0 0 0 0 0 0 0
19 16 14 13 14 14 14 14 15 18 19 19 19 18 16 13 9 7 6 5 5 4 4 4 3 3 3 2 1 1 0 0 0 1 0 0 0 0 0 0 0 0 0
20 19 16 15 13 12 11 11 12 15 18 19 19 18 17 15 12 11 9 6 5 4 4 5 5 4 3 3 2 1 0 0 0 0 0 0 1 1 0 0 0 0 0
22 22 20 18 16 13 11 10 10 13 17 18 18 16 15 16 16 16 15 11 9 7 4 3 4 4 3 2 2 1 0 0 0 0 0 0 1 2 1 0 0 0 0
22 22 21 20 20 17 13 9 8 12 16 17 16 13 13 16 16 16 16 16 14 10 5 2 2 1 1 1 1 0 1 1 0 0 0 0 1 2 2 1 0 0 0
19 20 19 20 22 21 15 9 7 12 16 17 16 13 12 14 14 13 14 16 15 11 6 3 1 0 0 0 0 1 2 2 1 0 0 0 1 2 2 1 0 0 0

GEFSMA_con_probscp_216.txt.gz
Probability
2 2 2 2 1 0 0 0 0 0 0 0 0 0 0 0 0 1 1 0 0 0 0 0 0 0 0 0 0 0 0 0 0 0 0 0 0 0 0 0 1 0 0
1 1 1 1 0 0 0 0 0 0 0 0 0 0 0 0 0 1 2 1 0 0 0 0 0 0 0 0 0 0 0 0 0 0 0 0 0 0 0 0 1 0 0
0 0 0 1 0 0 0 0 0 0 0 0 0 0 0 0 0 1 1 1 0 0 0 0 0 0 0 0 0 0 0 0 0 0 0 0 0 0 0 0 0 0 0
0 0 0 1 1 0 0 0 0 0 0 0 0 0 0 0 0 0 0 0 0 0 0 0 0 0 0 0 0 0 0 0 0 0 1 1 1 1 0 0 0 0 0
0 0 0 1 2 1 0 0 0 0 0 0 0 0 0 0 0 0 0 0 0 0 0 0 0 0 0 0 0 1 1 1 2 1 1 3 3 3 1 1 1 0 0
0 0 1 2 3 2 1 1 1 0 0 0 0 0 0 0 0 0 0 0 1 0 0 0 0 0 0 1 1 1 1 2 3 3 3 4 5 4 3 2 2 1 0
2 2 3 3 4 3 2 2 2 1 0 0 0 0 0 0 0 0 0 0 0 0 0 0 0 0 1 2 2 2 1 2 3 4 5 5 5 4 3 3 3 2 1
4 5 5 5 5 4 2 3 3 1 0 0 0 0 0 0 0 0 0 0 0 0 0 0 0 0 1 2 3 3 2 1 1 3 5 6 6 5 4 3 3 3 2
6 6 6 7 7 6 4 4 4 3 1 1 0 0 0 0 0 0 0 0 0 0 0 0 0 0 0 2 3 3 3 1 1 2 3 5 6 7 6 4 4 4 3
7 7 7 8 8 9 7 6 5 4 3 2 1 0 0 1 1 1 0 0 0 0 0 0 1 1 2 3 4 3 1 0 1 3 4 5 7 7 6 6 5 5 4
9 9 9 10 11 11 10 9 8 7 5 4 3 2 2 3 3 2 1 1 1 0 0 0 1 3 4 6 6 3 1 0 1 3 5 5 6 6 6 6 6 5 4
9 10 11 12 13 13 13 12 11 10 8 7 7 6 5 5 5 4 3 2 1 0 0 1 2 3 4 6 7 5 2 1 0 1 2 2 2 3 5 5 6 6 6
8 10 12 14 15 15 16 16 15 13 11 12 11 9 8 7 7 6 4 2 1 1 2 2 3 4 4 6 7 5 3 1 0 0 0 0 0 1 2 3 4 5 6
8 11 15 17 18 18 18 20 19 16 13 13 12 11 12 12 10 9 7 5 4 3 3 4 6 6 5 6 5 4 2 1 0 0 0 0 0 0 0 1 1 3 4
13 15 18 20 21 21 20 22 22 18 14 12 11 12 14 14 12 11 10 8 7 5 4 5 8 8 7 5 4 4 3 1 0 0 0 0 0 0 0 0 0 1 1
23 21 20 21 23 24 24 23 21 18 15 13 12 13 14 13 11 11 11 10 10 9 5 6 9 10 8 4 5 7 6 3 1 0 0 0 0 0 0 0 0 0 0
32 29 24 23 25 27 28 26 22 20 18 15 14 15 14 12 11 12 12 11 11 10 7 7 10 12 9 7 6 9 8 6 4 1 0 0 0 0 0 0 0 0 0
36 33 29 28 28 29 30 29 26 23 20 17 16 16 16 15 16 16 15 12 12 12 10 9 11 12 11 9 9 8 7 7 6 3 0 0 0 0 0 0 0 0 0
39 37 34 35 35 33 32 30 28 27 24 21 19 18 18 19 21 21 19 16 15 16 15 13 13 12 11 11 11 9 8 8 7 4 1 0 0 0 0 0 0 0 0
41 41 39 39 40 38 33 31 30 29 28 25 22 20 20 22 23 23 21 20 19 20 20 18 17 15 15 14 13 10 9 9 8 6 4 2 1 0 0 0 0 0 0
41 43 44 42 40 36 31 28 28 28 29 26 23 21 21 21 21 20 19 20 22 23 23 22 21 21 21 19 14 11 10 11 11 8 7 6 4 3 2 1 0 0 0
43 45 45 43 39 32 23 19 21 25 28 26 22 21 20 19 19 18 16 15 17 20 22 24 24 25 25 23 19 15 15 15 14 12 9 8 6 6 5 3 1 0 0
44 43 43 42 41 31 16 9 12 20 25 25 22 20 20 20 20 20 18 14 14 16 20 24 26 27 28 28 25 23 22 20 17 14 10 7 6 7 6 4 1 0 0
39 38 38 41 41 30 13 5 8 15 22 24 24 23 24 24 23 24 23 21 21 20 19 21 23 25 28 29 28 28 27 25 20 14 9 6 6 7 8 6 3 0 0
34 33 36 39 40 31 15 5 7 16 22 25 27 27 27 26 24 24 27 30 30 28 23 19 18 19 21 22 23 26 28 27 20 13 9 7 6 8 11 9 4 1 0
32 31 34 38 39 33 19 6 7 17 25 28 30 29 25 23 21 22 29 34 34 32 27 21 15 14 16 16 16 22 28 28 21 14 11 9 8 9 11 10 5 1 0

GEFSMA_con_probscp_222.txt.gz
Probability
0 0 0 1 0 0 0 0 1 1 1 0 0 0 0 0 1 0 2 6 8 7 7 5 2 1 1 1 1 1 0 1 2 3 3 4 3 1 0 0 0 0 0
1 1 1 1 0 0 0 0 0 0 0 0 0 0 0 0 1 0 1 5 8 9 9 7 5 4 3 2 2 2 1 1 2 4 5 5 4 2 1 0 0 0 0
3 2 1 1 0 0 0 0 0 1 1 0 0 0 0 0 1 1 1 2 5 8 10 9 8 7 5 4 4 4 3 2 3 5 6 6 5 3 2 1 0 0 0
5 4 2 1 0 0 1 0 1 2 3 2 1 1 0 0 1 1 1 2 4 7 8 9 9 9 8 6 4 5 6 4 3 4 4 4 4 3 3 2 1 0 0
5 4 3 2 1 1 3 2 2 4 5 4 2 1 0 1 2 2 2 4 6 7 7 6 7 8 9 7 5 6 7 7 6 4 3 4 4 3 3 2 1 0 0
5 4 3 4 3 3 4 5 5 5 5 4 2 1 0 1 2 3 3 5 7 8 7 7 7 7 8 7 6 5 6 7 8 7 6 6 5 5 4 3 2 1 1
8 7 5 6 6 5 4 4 5 5 4 3 2 0 0 1 1 3 6 7 6 7 8 9 10 10 8 6 5 4 4 5 7 9 9 8 7 7 7 6 4 3 2
9 9 8 7 6 5 5 5 6 6 4 3 2 1 0 0 1 3 7 9 8 7 8 9 13 13 11 8 5 4 4 4 7 9 10 9 8 9 9 8 6 4 3
11 11 10 9 7 7 7 8 8 7 6 6 5 4 2 2 2 2 4 6 8 8 6 7 10 14 16 14 10 7 6 6 7 9 10 9 8 8 9 9 8 5 4
13 13 11 10 10 10 10 11 11 9 9 9 9 8 6 6 6 3 1 3 6 7 5 4 6 11 17 18 16 13 10 9 9 9 9 9 10 9 9 10 9 6 4
17 17 15 13 12 12 11 11 11 11 11 11 11 11 10 10 10 5 1 2 4 6 6 6 6 9 14 18 20 17 14 11 10 8 7 9 11 11 11 10 8 6 5
23 23 22 19 16 15 14 13 14 15 15 15 15 14 14 14 12 7 3 3 4 7 9 11 10 10 13 17 17 15 13 10 7 5 4 4 6 8 8 8 7 6 6
26 28 29 27 23 20 19 18 19 19 19 20 20 20 19 17 13 10 8 7 6 8 11 13 14 14 16 16 13 10 8 5 3 1 1 1 1 3 4 5 6 7 7
29 32 35 32 28 25 22 22 22 22 23 24 25 27 26 21 15 12 12 11 9 8 9 12 16 18 19 16 11 7 6 3 1 0 0 0 0 0 1 2 4 5 5
31 36 39 36 31 27 24 23 23 24 27 28 28 29 29 24 17 15 16 15 11 8 7 9 14 17 16 12 8 9 9 5 1 0 0 0 0 0 0 0 1 2 2
32 37 41 39 35 31 28 26 25 27 31 32 29 28 28 24 19 18 18 16 12 8 7 7 10 13 13 8 6 9 12 7 2 0 0 0 0 0 0 0 0 0 0
38 40 42 40 38 37 37 33 30 30 33 33 30 27 26 23 21 21 20 17 13 11 10 8 10 13 14 11 8 8 9 7 4 2 0 0 0 0 0 0 0 0 0
49 47 44 40 38 42 44 40 34 32 34 34 32 28 25 22 22 22 20 19 16 15 15 14 13 15 17 17 13 8 6 4 4 2 0 0 0 0 0 0 0 0 0
56 53 46 41 41 44 47 44 39 36 36 36 34 31 27 24 23 23 21 20 18 18 20 19 17 19 20 19 15 9 4 3 3 1 0 0 0 0 0 0 0 0 0
55 53 47 43 43 44 45 45 44 42 40 39 37 35 31 27 26 25 24 23 22 22 23 23 22 24 24 22 17 10 5 3 2 1 0 1 1 1 0 0 0 0 0
52 50 46 44 44 41 37 40 42 42 42 42 40 37 33 29 27 25 23 24 25 27 29 29 29 28 27 26 22 15 10 6 5 3 2 2 2 3 2 1 0 0 0
51 49 47 47 46 39 28 27 32 36 39 40 40 37 31 26 24 22 19 18 21 25 28 32 33 31 31 31 28 22 18 13 11 10 7 4 3 4 4 2 1 0 0
52 51 49 49 47 37 23 16 21 30 34 37 39 39 31 24 24 25 22 18 18 20 23 27 30 31 34 35 33 28 24 21 18 16 11 6 4 4 5 3 1 0 0
53 52 50 49 45 35 19 10 14 24 32 35 37 39 36 30 27 29 27 24 23 21 18 19 21 26 31 34 34 31 27 25 21 18 14 9 6 5 4 3 1 0 0
50 49 47 46 42 32 17 8 10 23 34 36 34 34 33 31 26 25 26 29 29 25 19 15 16 19 21 23 25 26 27 25 21 18 17 13 9 6 4 3 2 1 0
45 44 42 43 40 31 17 7 10 25 37 37 32 27 24 25 22 19 24 31 30 26 22 17 15 14 13 13 15 21 26 26 22 20 20 17 12 7 4 3 2 1 0

GEFSMA_con_probscp_228.txt.gz
Probability
0 0 0 0 0 0 0 0 0 0 0 0 0 0 0 0 0 0 0 0 1 3 4 4 3 3 3 3 2 1 0 0 0 0 0 0 0 0 0 0 0 0 0
0 0 0 0 0 0 0 0 0 0 0 0 0 0 0 0 0 0 0 0 2 3 4 3 3 3 3 3 3 2 1 0 0 0 0 0 0 0 0 0 0 0 0
1 1 0 0 0 0 0 0 0 0 0 0 0 0 0 0 0 0 0 0 1 2 3 3 3 3 3 3 3 2 1 0 0 0 0 0 0 0 0 0 0 0 0
2 2 1 0 0 0 0 0 0 0 0 0 0 0 0 0 0 0 0 0 0 1 1 2 4 4 4 3 3 2 1 0 0 0 0 0 0 0 0 0 0 0 0
3 3 2 0 0 0 0 0 0 0 0 0 0 0 0 0 0 0 0 0 0 0 0 1 3 5 5 4 4 3 1 0 0 0 0 1 1 0 0 0 0 0 0
3 3 1 0 0 0 0 1 2 1 1 0 0 0 0 0 0 0 0 0 0 0 0 0 2 3 4 4 4 2 1 0 0 0 1 2 2 1 0 0 0 0 0
3 3 2 1 0 0 0 2 3 2 1 0 0 0 0 0 0 0 0 0 0 0 0 0 0 1 1 2 2 1 0 0 0 0 2 3 4 2 1 1 0 0 0
4 4 3 2 0 0 0 1 2 3 2 0 0 0 0 0 0 0 0 0 0 0 0 0 0 0 0 0 0 0 0 0 0 0 2 5 6 5 4 3 2 0 0
5 4 3 2 1 0 0 0 1 2 2 1 0 0 0 0 0 0 0 0 0 0 0 0 0 0 0 0 0 0 0 1 2 3 4 6 8 7 6 5 3 1 0
5 4 4 3 2 2 1 1 1 2 3 2 1 0 0 0 0 0 0 0 0 0 0 0 0 0 0 0 0 0 1 3 6 7 6 7 7 7 6 5 3 1 1
4 5 5 4 4 4 4 4 3 3 3 4 2 1 0 0 0 0 0 0 0 0 0 0 0 0 0 0 1 2 4 6 7 7 7 7 6 5 5 5 4 2 2
2 3 5 4 4 5 6 7 6 5 5 6 5 2 1 1 1 1 1 0 0 0 0 0 0 0 0 0 1 4 7 8 6 5 5 5 5 5 5 6 5 4 3
1 3 5 5 5 6 7 8 8 8 8 9 8 5 4 4 3 3 2 1 0 0 0 0 0 0 0 0 1 3 5 5 4 3 3 3 4 5 6 7 6 5 5
3 4 7 6 5 6 8 10 11 11 11 11 10 8 7 6 6 5 4 2 1 0 0 0 0 0 0 0 0 1 1 1 1 1 1 1 1 3 4 4 5 5 4
6 6 7 7 7 8 9 11 12 12 12 12 11 10 9 8 6 6 5 4 2 1 0 0 1 0 0 0 0 0 0 0 0 0 0 0 0 1 1 1 2 2 2
9 8 7 8 10 11 11 11 11 11 12 13 12 10 9 7 6 5 5 4 4 3 2 1 0 0 0 0 0 0 0 0 0 0 0 0 0 0 0 0 0 0 0
11 10 10 11 12 13 12 12 11 10 10 11 10 8 6 6 6 6 6 5 6 6 4 2 1 0 0 1 1 0 0 0 0 0 0 0 0 0 0 0 0 0 0
13 13 13 14 14 14 15 15 13 11 9 8 7 5 4 4 6 8 8 7 7 7 6 4 3 2 1 2 2 1 0 0 0 0 0 0 0 0 0 0 0 0 0
17 16 17 17 17 16 18 18 17 15 12 10 8 6 5 5 6 9 9 8 8 7 6 6 5 5 4 3 3 2 2 1 0 0 0 0 0 0 0 0 0 0 0
22 21 21 21 21 19 18 18 18 19 17 15 13 11 10 9 8 9 10 10 10 8 7 7 6 6 5 4 4 5 5 4 2 0 0 0 0 0 0 0 0 0 0
26 25 24 25 24 21 17 15 17 19 18 17 16 15 13 11 9 8 9 10 11 11 10 8 7 7 6 5 6 6 6 6 4 1 0 0 0 0 0 0 0 0 0
28 28 28 27 25 21 15 12 14 17 17 16 14 14 13 11 9 7 6 7 9 10 11 11 9 7 6 7 9 8 7 6 4 2 0 0 0 0 0 0 0 0 0
27 28 27 25 23 20 14 9 9 13 15 14 13 13 12 10 8 6 4 4 4 5 7 10 9 7 7 9 12 12 10 8 5 4 2 0 0 0 0 0 0 0 0
25 25 24 24 23 21 14 7 7 12 15 14 13 13 13 11 8 7 6 4 2 2 3 5 6 5 5 8 11 12 11 8 6 5 3 2 1 1 1 1 1 0 0
21 22 23 22 21 19 14 7 7 11 15 15 14 13 13 11 7 5 5 5 4 3 1 2 2 2 2 3 6 8 8 7 5 4 4 4 3 3 3 2 2 1 1
20 21 22 20 18 17 12 6 6 12 15 14 13 12 11 10 7 4 4 6 6 4 2 2 1 0 0 0 1 4 7 7 5 3 4 4 4 4 4 3 3 2 2

GEFSMA_con_probscp_234.txt.gz
Probability
0 0 0 0 0 0 0 0 0 0 0 0 0 0 0 0 0 0 0 0 0 0 0 1 2 3 3 3 3 2 1 0 0 0 0 0 0 0 0 0 0 0 0
0 0 0 0 0 0 0 0 0 0 0 0 0 0 0 0 0 0 0 0 0 0 0 0 2 3 3 3 3 1 0 0 0 0 0 0 0 0 0 0 0 0 0
0 0 0 0 0 0 0 0 0 0 0 0 0 0 0 0 0 0 0 0 0 0 0 1 2 3 3 3 3 1 1 0 0 0 0 0 0 0 0 0 0 0 0
0 0 0 0 0 0 0 0 0 0 0 0 0 0 0 0 0 0 0 0 0 0 0 1 2 2 3 3 3 3 2 1 0 0 0 0 0 0 0 0 0 0 0
0 0 0 0 0 0 0 0 0 0 0 0 0 0 0 0 0 0 0 0 0 0 0 0 1 1 1 2 3 3 3 2 1 1 0 0 0 0 0 0 0 0 0
0 0 0 0 0 0 0 0 0 0 0 0 0 0 0 0 0 0 0 0 0 0 0 0 0 0 1 1 2 3 4 4 3 2 1 0 0 0 0 0 0 0 0
0 0 0 0 0 0 0 0 0 0 0 0 0 0 0 0 0 0 0 0 0 0 0 0 0 1 1 1 1 1 2 3 3 2 1 1 0 1 1 1 1 0 0
0 0 0 0 0 0 0 0 0 0 0 0 0 0 0 0 0 0 0 0 0 0 0 1 1 1 2 2 2 1 1 2 2 2 2 2 1 1 1 1 1 1 1
0 0 0 0 0 0 0 0 0 0 1 0 0 0 0 0 0 0 0 0 0 0 1 2 2 2 2 2 2 2 2 2 2 2 2 1 1 0 0 1 1 1 2
0 0 0 0 0 0 0 0 0 0 1 1 1 1 0 0 0 0 0 0 0 0 1 2 3 2 1 1 1 1 2 3 3 1 1 1 1 1 0 0 0 1 3
0 0 0 0 0 0 0 0 1 1 1 2 2 2 1 1 1 1 1 0 0 0 1 1 2 1 0 0 0 0 2 3 3 1 1 2 2 2 1 0 0 1 2
0 0 0 0 0 0 0 1 2 2 3 3 3 3 3 3 3 3 2 1 0 0 0 0 1 1 0 0 0 1 2 2 2 1 1 2 3 2 1 0 1 1 1
1 0 0 0 0 0 1 1 3 4 4 4 4 4 5 6 6 6 5 3 1 0 0 0 0 0 0 0 0 1 1 1 1 1 1 2 1 1 0 0 0 0 1
2 2 1 1 0 1 1 2 3 4 5 5 6 6 7 8 8 9 8 5 2 0 0 0 0 0 0 1 0 0 0 0 0 0 1 1 0 0 0 0 0 0 0
6 5 3 2 2 1 1 1 2 3 5 6 6 7 8 9 9 9 8 6 4 2 1 1 1 1 0 0 0 0 0 0 0 0 0 0 0 0 0 0 0 0 0
8 9 7 6 5 2 1 1 3 4 4 5 6 7 9 10 9 8 7 6 5 3 1 2 2 2 1 0 0 0 0 0 0 0 0 0 0 0 0 0 0 0 0
10 11 11 10 8 6 4 4 5 5 5 5 6 6 8 9 10 9 7 6 4 2 1 1 1 1 1 0 0 0 0 0 0 0 0 0 0 0 0 0 0 0 0
13 13 13 13 12 10 9 9 8 7 7 7 7 7 8 9 11 11 9 8 6 4 2 1 1 1 1 1 1 1 0 0 0 0 0 0 0 0 0 0 0 0 0
16 15 13 13 13 13 13 13 13 10 9 9 8 8 10 11 13 13 12 11 10 9 7 6 4 3 3 3 3 3 1 1 1 1 1 1 0 0 0 0 0 0 0
19 17 14 13 13 13 13 15 16 14 11 10 10 10 11 13 14 14 13 13 13 13 11 9 7 6 5 5 6 5 4 3 3 3 2 2 1 1 0 0 0 0 0
22 21 18 15 15 13 12 14 16 14 13 13 13 12 12 12 13 13 13 13 12 12 11 10 8 6 6 6 7 7 5 5 5 5 4 3 3 2 1 0 0 0 0
24 23 21 19 17 15 12 11 12 12 12 13 13 12 11 10 9 10 9 8 8 9 9 9 8 7 6 6 7 7 6 5 6 7 5 3 3 3 2 1 0 0 0
22 22 22 21 20 16 10 7 6 7 8 8 8 9 9 8 7 7 6 5 6 7 8 9 9 9 8 7 6 7 7 7 7 7 6 4 3 3 2 1 0 0 0
20 20 19 20 19 14 7 3 2 2 3 4 4 6 7 7 7 7 7 7 7 7 6 6 8 8 7 6 6 7 9 9 7 6 5 4 5 5 4 2 1 0 0
18 17 16 17 15 10 4 0 0 1 1 2 3 5 6 7 6 6 8 9 9 8 5 4 4 4 3 2 3 6 8 9 8 6 4 4 6 7 6 4 2 1 0
15 15 15 14 12 7 2 0 1 2 2 1 3 5 5 6 6 5 7 9 9 9 7 4 2 1 1 1 2 4 6 8 9 7 4 4 5 6 6 6 4 2 1

GEFSMA_con_probscp_240.txt.gz
Probability
1 1 2 2 1 0 0 0 0 0 0 0 0 0 0 0 0 0 0 2 5 5 2 0 0 0 1 2 3 3 3 2 1 0 0 0 0 0 0 0 0 0 0
1 1 1 1 1 0 0 0 0 0 0 0 0 0 0 0 0 0 0 2 5 6 4 2 1 0 0 1 2 3 3 2 1 0 0 0 0 0 0 0 0 0 0
1 1 1 1 0 1 1 0 0 0 0 0 0 0 0 0 0 0 0 1 4 5 5 3 1 0 0 0 1 2 3 2 1 0 0 0 0 0 0 0 0 0 0
2 2 2 1 1 2 1 0 0 0 0 0 0 0 0 0 0 0 0 1 2 3 4 3 1 0 0 0 2 3 3 2 0 0 0 0 0 0 0 0 0 0 0
2 3 3 3 3 2 1 0 0 0 1 1 0 0 0 0 0 0 0 0 1 2 2 2 2 1 0 1 3 5 5 3 1 0 0 0 0 0 0 0 0 0 0
2 2 3 3 3 2 1 0 0 0 1 2 1 0 0 0 0 0 0 0 0 1 1 1 1 1 2 4 5 6 6 4 2 1 0 0 0 0 0 0 0 0 0
1 1 1 2 1 1 0 0 1 1 1 2 2 1 0 0 0 0 0 0 0 0 0 1 2 2 4 6 6 7 6 5 3 1 1 0 0 0 0 0 0 0 1
1 1 1 1 0 0 0 1 2 2 2 3 3 2 1 0 0 1 1 0 0 0 0 1 3 4 5 6 6 6 5 4 3 3 2 1 0 0 0 1 0 0 1
1 1 1 1 0 0 1 2 3 3 3 3 3 3 1 1 1 2 2 1 0 1 1 1 3 4 4 6 7 5 3 3 4 4 3 1 0 0 0 0 0 0 1
2 2 2 1 0 0 1 2 3 3 3 2 3 4 4 3 3 3 2 1 2 3 3 3 3 5 5 7 7 5 3 3 3 4 4 2 1 1 1 0 0 1 1
4 5 4 2 1 0 1 1 1 3 3 3 5 6 7 7 7 6 4 3 4 5 6 6 7 8 8 7 6 4 3 3 3 3 3 3 3 2 1 1 2 3 3
5 5 5 4 2 1 1 0 1 3 4 4 5 6 8 9 9 9 8 6 6 6 6 6 7 7 8 7 5 4 3 3 2 2 3 3 3 3 2 3 4 5 5
5 5 6 5 3 3 3 3 3 4 5 5 5 6 7 8 9 9 9 8 7 5 5 4 3 4 5 5 5 5 4 2 1 1 1 3 3 3 3 5 5 4 4
6 6 8 8 6 5 6 7 8 8 9 9 9 9 9 8 8 8 9 9 8 5 4 3 3 3 4 4 4 5 5 2 0 0 1 2 2 2 3 3 4 3 1
6 7 9 11 11 10 10 12 13 14 15 15 16 15 14 11 9 9 9 11 11 8 6 6 6 5 4 3 3 6 7 4 1 0 0 1 1 1 1 1 1 1 0
10 10 12 15 16 15 16 17 17 17 17 18 18 18 17 15 13 12 11 13 15 14 11 10 9 8 7 5 6 9 11 8 4 1 0 0 0 0 0 0 0 0 0
16 18 20 21 21 21 23 22 19 16 16 18 18 18 18 18 18 16 14 14 16 17 15 13 13 14 14 13 13 14 13 12 8 3 0 0 0 0 0 0 0 0 0
21 24 28 28 27 27 29 28 21 17 17 19 21 22 21 22 22 21 19 17 18 19 19 18 17 19 22 23 21 19 16 14 12 5 1 0 0 0 0 0 0 0 0
27 28 32 34 32 32 33 32 27 23 23 23 26 27 27 26 26 26 24 23 22 23 24 23 22 23 26 28 26 21 18 18 16 9 3 1 0 0 0 0 0 0 0
33 33 35 37 35 32 33 34 33 29 28 29 30 30 30 30 28 26 26 26 26 26 27 26 25 26 28 29 27 21 18 20 20 15 10 6 4 4 2 0 0 0 0
37 38 37 35 33 29 28 31 33 31 30 32 33 32 31 28 24 20 19 21 25 27 27 26 26 27 29 29 27 23 19 19 20 19 17 14 12 11 8 4 1 0 0
37 38 38 35 31 26 21 22 25 28 30 32 33 32 29 24 19 15 11 11 16 20 22 25 27 28 29 28 26 24 22 20 18 19 21 20 18 17 15 9 3 0 0
36 36 36 34 31 25 16 12 15 22 28 30 31 31 27 21 18 16 12 8 9 10 14 20 25 27 26 24 22 22 22 21 20 20 22 22 19 18 17 11 5 1 0
34 35 35 34 31 24 14 8 10 19 27 30 29 27 25 20 17 18 16 14 14 12 10 13 18 20 18 17 17 19 20 20 21 22 24 23 20 17 17 15 7 2 0
31 32 33 33 29 23 13 6 9 19 27 27 25 22 21 18 14 14 16 19 20 17 12 9 9 10 10 9 11 15 19 19 19 21 24 23 20 18 18 18 12 5 2
28 28 30 30 28 22 13 5 8 20 26 24 22 19 17 14 10 9 15 20 21 18 13 9 6 5 6 5 7 13 18 19 17 19 23 23 20 18 18 18 15 9 4

GEFSMA_con_probscp_246.txt.gz
Probability
9 7 3 0 0 0 0 0 0 0 0 0 0 0 0 0 0 0 2 7 10 11 11 12 12 11 8 5 3 3 3 3 3 3 1 0 1 1 1 0 0 0 0
9 7 3 0 0 0 0 0 0 0 0 0 0 0 0 0 0 0 1 5 9 10 11 11 12 11 9 6 4 4 4 4 3 2 1 0 0 0 0 0 0 0 0
7 5 2 0 0 0 0 0 0 0 0 0 0 0 0 0 1 1 2 4 6 8 10 12 12 12 10 9 7 6 6 5 3 1 1 0 0 0 0 0 0 0 0
6 4 1 0 0 0 0 0 0 0 0 0 0 0 1 1 3 3 4 5 7 8 10 13 13 13 12 11 10 9 8 7 4 2 1 0 0 0 0 0 0 0 0
7 5 3 2 1 1 1 0 0 0 1 1 0 1 2 3 4 4 4 5 8 11 13 14 15 15 13 12 11 10 9 8 6 4 3 2 1 0 0 0 0 0 0
6 5 4 3 2 1 1 0 0 0 1 1 1 1 2 4 4 6 6 5 8 12 14 17 17 15 13 12 11 10 10 9 7 6 5 5 3 2 1 0 0 0 0
6 5 5 5 3 2 1 0 0 0 1 1 2 2 2 2 4 6 7 6 7 10 13 17 18 16 13 11 10 11 11 9 8 7 7 7 6 5 3 1 1 0 0
7 6 7 7 7 5 4 3 2 1 1 1 1 2 2 2 3 3 4 6 7 8 10 13 18 18 15 13 11 11 11 11 9 8 7 7 7 6 5 4 2 1 0
10 8 8 9 9 9 9 8 6 4 3 2 2 2 1 2 3 2 2 4 7 8 7 9 15 19 19 18 16 13 11 10 10 8 8 7 7 6 6 6 4 1 0
13 12 10 9 9 9 10 10 9 7 4 3 3 3 3 4 5 4 2 3 5 8 9 9 12 17 20 22 21 18 12 9 8 8 8 7 5 4 4 5 4 2 0
18 17 15 13 11 9 8 10 11 10 6 4 5 6 6 7 8 7 5 3 3 5 9 10 10 13 17 21 22 19 14 9 8 8 7 6 4 4 4 5 5 3 1
22 21 21 21 19 13 11 12 14 13 11 9 10 10 10 11 11 11 8 6 3 3 7 11 14 13 13 16 18 17 13 10 8 6 4 4 4 5 6 6 6 4 3
23 24 27 29 25 18 15 16 18 17 16 15 15 15 16 15 15 15 13 11 8 5 7 13 18 15 12 14 16 14 11 7 4 3 2 2 4 5 6 6 6 5 4
20 26 33 33 27 20 17 19 21 19 19 19 18 20 22 20 19 19 17 17 14 11 10 13 17 16 14 15 15 14 11 6 2 1 0 1 1 2 3 5 5 5 4
23 30 36 34 27 21 20 21 23 22 22 23 22 24 25 24 23 23 22 21 20 16 12 12 15 16 16 16 14 16 16 8 1 0 0 0 0 0 1 2 3 4 4
34 37 39 37 31 27 26 26 27 27 28 29 28 27 27 26 26 26 23 23 23 19 14 14 17 17 16 15 16 21 22 13 4 0 0 0 0 0 0 0 1 2 2
43 43 44 42 37 35 35 36 35 34 36 36 33 29 27 27 26 24 22 22 24 23 18 16 18 19 19 19 21 25 25 18 9 3 1 0 0 0 0 0 0 1 1
48 48 48 47 42 40 43 45 41 39 40 40 37 34 31 29 28 25 22 22 24 25 23 20 18 21 24 24 25 26 25 21 16 6 1 0 0 0 0 0 0 0 0
52 51 51 50 46 44 46 47 45 42 42 41 40 38 34 32 33 30 26 25 25 25 25 21 19 21 24 25 26 26 24 22 18 8 2 1 0 0 0 0 0 0 0
53 53 53 52 49 46 44 45 45 44 43 42 42 39 34 32 33 32 29 27 26 25 22 19 18 19 22 25 27 25 24 23 19 12 6 4 3 1 0 0 0 0 0
51 51 52 52 49 43 38 39 42 42 43 43 43 40 34 30 30 28 24 22 23 23 21 18 17 16 19 23 24 23 21 20 19 15 12 10 8 6 4 2 1 0 0
49 48 48 47 43 36 30 29 34 38 41 43 43 40 33 28 26 22 15 12 14 17 18 19 18 16 16 17 18 18 18 16 16 16 15 14 12 11 10 7 3 0 0
46 44 42 40 37 32 24 19 23 33 41 43 41 37 30 25 24 21 14 10 11 12 14 18 20 18 16 16 16 15 16 16 15 14 14 14 14 13 11 8 4 1 0
44 41 37 36 35 31 23 14 16 28 39 42 39 33 27 23 22 22 20 17 16 15 14 15 18 18 16 15 14 14 15 15 15 13 12 12 13 13 10 8 5 2 0
43 39 36 35 35 31 21 11 13 25 35 37 34 28 22 20 19 19 22 23 20 18 14 12 12 12 10 8 8 9 11 12 12 11 11 12 13 14 11 8 5 3 1
43 39 36 36 36 31 19 9 11 23 31 32 30 25 19 17 15 15 21 23 19 16 14 11 8 6 5 4 4 5 7 8 9 9 11 12 13 14 12 8 6 4 3